<?xml version="1.0" encoding="UTF-8" standalone="no" ?>
<gpx xmlns="http://www.topografix.com/GPX/1/1" xmlns:xsi="http://www.w3.org/2001/XMLSchema-instance" xsi:schemaLocation="http://www.topografix.com/GPX/1/1 http://www.topografix.com/GPX/1/1/gpx.xsd" version="1.1" creator="VisuGPX - https://www.visugpx.com">
  <metadata>
    <name>Le Chemin des Sources à Autun</name>
  </metadata>
  <wpt lat="46.94696" lon="4.28822">
    <ele>387</ele>
    <name><![CDATA[Parking devant le collège de la Châtaigneraie]]></name>
  </wpt>
  <wpt lat="46.94554" lon="4.29604">
    <ele>387</ele>
    <name><![CDATA[point de vue sur la cathédrale]]></name>
  </wpt>
  <wpt lat="46.94575" lon="4.29732">
    <ele>394</ele>
    <name><![CDATA[Carrefour de la boucle]]></name>
  </wpt>
  <wpt lat="46.94618" lon="4.29881">
    <ele>405</ele>
    <name><![CDATA[proximité de la cathédrale]]></name>
  </wpt>
  <wpt lat="46.94707" lon="4.30103">
    <ele>410</ele>
    <name><![CDATA[Rue Lauchien le Boucher]]></name>
  </wpt>
  <wpt lat="46.94825" lon="4.30601">
    <ele>392</ele>
    <name><![CDATA[rue Courte]]></name>
  </wpt>
  <wpt lat="46.94824" lon="4.30692">
    <ele>388</ele>
    <name><![CDATA[Cimetière]]></name>
  </wpt>
  <wpt lat="46.94748" lon="4.30855">
    <ele>372</ele>
    <name><![CDATA[chemin des Ragots]]></name>
  </wpt>
  <wpt lat="46.94756" lon="4.31579">
    <ele>369</ele>
    <name><![CDATA[Chemin des Ragots]]></name>
  </wpt>
  <wpt lat="46.94435" lon="4.32607">
    <ele>417</ele>
    <name><![CDATA[petit sentier qui grimpe sous bois.]]></name>
  </wpt>
  <wpt lat="46.94341" lon="4.33148">
    <ele>516</ele>
    <name><![CDATA[Route Forestière des Gorges]]></name>
  </wpt>
  <wpt lat="46.94617" lon="4.33228">
    <ele>492</ele>
    <name><![CDATA[Carrefour sentier]]></name>
  </wpt>
  <wpt lat="46.94506" lon="4.3351">
    <ele>521</ele>
    <name><![CDATA[départ du sentier des sources]]></name>
  </wpt>
  <wpt lat="46.94148" lon="4.34124">
    <ele>536</ele>
    <name><![CDATA[Ruisseau de Bonneau]]></name>
  </wpt>
  <wpt lat="46.94519" lon="4.34766">
    <ele>530</ele>
    <name><![CDATA[Route Forestière des Chômeurs]]></name>
  </wpt>
  <wpt lat="46.93142" lon="4.32649">
    <ele>599</ele>
    <name><![CDATA[Carrefour avec la route du Pont de Fer]]></name>
  </wpt>
  <wpt lat="46.92118" lon="4.31883">
    <ele>616</ele>
    <name><![CDATA[Étang des Cloix]]></name>
  </wpt>
  <wpt lat="46.92111" lon="4.31814">
    <ele>613</ele>
    <name><![CDATA[Etang des Cloix]]></name>
  </wpt>
  <wpt lat="46.9206" lon="4.31587">
    <ele>612</ele>
    <name><![CDATA[Etang des Cloix]]></name>
  </wpt>
  <wpt lat="46.93083" lon="4.31682">
    <ele>590</ele>
    <name><![CDATA[Chemin des Chèvres]]></name>
  </wpt>
  <wpt lat="46.93503" lon="4.29779">
    <ele>497</ele>
    <name><![CDATA[Route D256]]></name>
  </wpt>
  <wpt lat="46.9408" lon="4.29947">
    <ele>424</ele>
    <name><![CDATA[Remparts romains]]></name>
  </wpt>
  <wpt lat="46.94709" lon="4.28842">
    <ele>386</ele>
    <name><![CDATA[Parking devant le collège de la Châtaigneraie]]></name>
  </wpt>
  <trk>
    <name><![CDATA[Le Chemin des Sources à Autun]]></name>
    <trkseg>
      <trkpt lat="46.94696" lon="4.28822">
        <ele>387</ele>
        <time>2020-07-03T14:01:04+02:00</time>
      </trkpt>
      <trkpt lat="46.94687" lon="4.28854">
        <ele>382</ele>
        <time>2020-07-03T14:01:04+02:00</time>
      </trkpt>
      <trkpt lat="46.94677" lon="4.28885">
        <ele>385</ele>
        <time>2020-07-03T14:01:04+02:00</time>
      </trkpt>
      <trkpt lat="46.94675" lon="4.28921">
        <ele>387</ele>
        <time>2020-07-03T14:03:12+02:00</time>
      </trkpt>
      <trkpt lat="46.94672" lon="4.28955">
        <ele>388</ele>
        <time>2020-07-03T14:03:12+02:00</time>
      </trkpt>
      <trkpt lat="46.94668" lon="4.28989">
        <ele>389</ele>
        <time>2020-07-03T14:03:12+02:00</time>
      </trkpt>
      <trkpt lat="46.94665" lon="4.29022">
        <ele>391</ele>
        <time>2020-07-03T14:03:12+02:00</time>
      </trkpt>
      <trkpt lat="46.94656" lon="4.29054">
        <ele>393</ele>
        <time>2020-07-03T14:03:12+02:00</time>
      </trkpt>
      <trkpt lat="46.94644" lon="4.29084">
        <ele>394</ele>
        <time>2020-07-03T14:03:12+02:00</time>
      </trkpt>
      <trkpt lat="46.94628" lon="4.29109">
        <ele>393</ele>
        <time>2020-07-03T14:03:12+02:00</time>
      </trkpt>
      <trkpt lat="46.94621" lon="4.29142">
        <ele>393</ele>
        <time>2020-07-03T14:05:20+02:00</time>
      </trkpt>
      <trkpt lat="46.94618" lon="4.29176">
        <ele>392</ele>
        <time>2020-07-03T14:05:20+02:00</time>
      </trkpt>
      <trkpt lat="46.9461" lon="4.29207">
        <ele>392</ele>
        <time>2020-07-03T14:05:20+02:00</time>
      </trkpt>
      <trkpt lat="46.94605" lon="4.29241">
        <ele>391</ele>
        <time>2020-07-03T14:05:20+02:00</time>
      </trkpt>
      <trkpt lat="46.94602" lon="4.29276">
        <ele>390</ele>
        <time>2020-07-03T14:05:20+02:00</time>
      </trkpt>
      <trkpt lat="46.94598" lon="4.29309">
        <ele>387</ele>
        <time>2020-07-03T14:05:20+02:00</time>
      </trkpt>
      <trkpt lat="46.94595" lon="4.29345">
        <ele>386</ele>
        <time>2020-07-03T14:05:20+02:00</time>
      </trkpt>
      <trkpt lat="46.94588" lon="4.2938">
        <ele>385</ele>
        <time>2020-07-03T14:07:28+02:00</time>
      </trkpt>
      <trkpt lat="46.94583" lon="4.29413">
        <ele>386</ele>
        <time>2020-07-03T14:07:28+02:00</time>
      </trkpt>
      <trkpt lat="46.94579" lon="4.29446">
        <ele>385</ele>
        <time>2020-07-03T14:07:28+02:00</time>
      </trkpt>
      <trkpt lat="46.94574" lon="4.2948">
        <ele>386</ele>
        <time>2020-07-03T14:07:28+02:00</time>
      </trkpt>
      <trkpt lat="46.94565" lon="4.2951">
        <ele>384</ele>
        <time>2020-07-03T14:07:28+02:00</time>
      </trkpt>
      <trkpt lat="46.94558" lon="4.29541">
        <ele>386</ele>
        <time>2020-07-03T14:07:28+02:00</time>
      </trkpt>
      <trkpt lat="46.94546" lon="4.2957">
        <ele>387</ele>
        <time>2020-07-03T14:07:28+02:00</time>
      </trkpt>
      <trkpt lat="46.94554" lon="4.29604">
        <ele>387</ele>
        <time>2020-07-03T14:11:44+02:00</time>
      </trkpt>
      <trkpt lat="46.94555" lon="4.29638">
        <ele>388</ele>
        <time>2020-07-03T14:11:44+02:00</time>
      </trkpt>
      <trkpt lat="46.94556" lon="4.29674">
        <ele>390</ele>
        <time>2020-07-03T14:11:44+02:00</time>
      </trkpt>
      <trkpt lat="46.9456" lon="4.29707">
        <ele>392</ele>
        <time>2020-07-03T14:11:44+02:00</time>
      </trkpt>
      <trkpt lat="46.94575" lon="4.29732">
        <ele>394</ele>
        <time>2020-07-03T14:11:44+02:00</time>
      </trkpt>
      <trkpt lat="46.94587" lon="4.29761">
        <ele>397</ele>
        <time>2020-07-03T14:11:44+02:00</time>
      </trkpt>
      <trkpt lat="46.94604" lon="4.29783">
        <ele>399</ele>
        <time>2020-07-03T14:13:52+02:00</time>
      </trkpt>
      <trkpt lat="46.94613" lon="4.29815">
        <ele>401</ele>
        <time>2020-07-03T14:13:52+02:00</time>
      </trkpt>
      <trkpt lat="46.94617" lon="4.29848">
        <ele>402</ele>
        <time>2020-07-03T14:13:52+02:00</time>
      </trkpt>
      <trkpt lat="46.94618" lon="4.29881">
        <ele>405</ele>
        <time>2020-07-03T14:13:52+02:00</time>
      </trkpt>
      <trkpt lat="46.94632" lon="4.29909">
        <ele>408</ele>
        <time>2020-07-03T14:13:52+02:00</time>
      </trkpt>
      <trkpt lat="46.9465" lon="4.29929">
        <ele>412</ele>
        <time>2020-07-03T14:13:52+02:00</time>
      </trkpt>
      <trkpt lat="46.94656" lon="4.29961">
        <ele>414</ele>
        <time>2020-07-03T14:16:00+02:00</time>
      </trkpt>
      <trkpt lat="46.94667" lon="4.2999">
        <ele>415</ele>
        <time>2020-07-03T14:16:00+02:00</time>
      </trkpt>
      <trkpt lat="46.94674" lon="4.30021">
        <ele>414</ele>
        <time>2020-07-03T14:16:00+02:00</time>
      </trkpt>
      <trkpt lat="46.94693" lon="4.30041">
        <ele>413</ele>
        <time>2020-07-03T14:16:00+02:00</time>
      </trkpt>
      <trkpt lat="46.94706" lon="4.30069">
        <ele>412</ele>
        <time>2020-07-03T14:16:00+02:00</time>
      </trkpt>
      <trkpt lat="46.94707" lon="4.30103">
        <ele>410</ele>
        <time>2020-07-03T14:16:00+02:00</time>
      </trkpt>
      <trkpt lat="46.94706" lon="4.30137">
        <ele>408</ele>
        <time>2020-07-03T14:18:08+02:00</time>
      </trkpt>
      <trkpt lat="46.94696" lon="4.30169">
        <ele>407</ele>
        <time>2020-07-03T14:18:08+02:00</time>
      </trkpt>
      <trkpt lat="46.94697" lon="4.30203">
        <ele>404</ele>
        <time>2020-07-03T14:18:08+02:00</time>
      </trkpt>
      <trkpt lat="46.94711" lon="4.30231">
        <ele>405</ele>
        <time>2020-07-03T14:18:08+02:00</time>
      </trkpt>
      <trkpt lat="46.94726" lon="4.30256">
        <ele>403</ele>
        <time>2020-07-03T14:18:08+02:00</time>
      </trkpt>
      <trkpt lat="46.9474" lon="4.30284">
        <ele>403</ele>
        <time>2020-07-03T14:18:08+02:00</time>
      </trkpt>
      <trkpt lat="46.94754" lon="4.30311">
        <ele>402</ele>
        <time>2020-07-03T14:18:08+02:00</time>
      </trkpt>
      <trkpt lat="46.9477" lon="4.30334">
        <ele>402</ele>
        <time>2020-07-03T14:20:16+02:00</time>
      </trkpt>
      <trkpt lat="46.94784" lon="4.30361">
        <ele>399</ele>
        <time>2020-07-03T14:20:16+02:00</time>
      </trkpt>
      <trkpt lat="46.9479" lon="4.30393">
        <ele>397</ele>
        <time>2020-07-03T14:20:16+02:00</time>
      </trkpt>
      <trkpt lat="46.94796" lon="4.30426">
        <ele>398</ele>
        <time>2020-07-03T14:20:16+02:00</time>
      </trkpt>
      <trkpt lat="46.94793" lon="4.30459">
        <ele>398</ele>
        <time>2020-07-03T14:20:16+02:00</time>
      </trkpt>
      <trkpt lat="46.94792" lon="4.30492">
        <ele>397</ele>
        <time>2020-07-03T14:20:16+02:00</time>
      </trkpt>
      <trkpt lat="46.9479" lon="4.30526">
        <ele>394</ele>
        <time>2020-07-03T14:20:16+02:00</time>
      </trkpt>
      <trkpt lat="46.94793" lon="4.3056">
        <ele>393</ele>
        <time>2020-07-03T14:22:24+02:00</time>
      </trkpt>
      <trkpt lat="46.94803" lon="4.30591">
        <ele>393</ele>
        <time>2020-07-03T14:22:24+02:00</time>
      </trkpt>
      <trkpt lat="46.94825" lon="4.30601">
        <ele>392</ele>
        <time>2020-07-03T14:22:24+02:00</time>
      </trkpt>
      <trkpt lat="46.9484" lon="4.30627">
        <ele>391</ele>
        <time>2020-07-03T14:22:24+02:00</time>
      </trkpt>
      <trkpt lat="46.94831" lon="4.30658">
        <ele>390</ele>
        <time>2020-07-03T14:22:24+02:00</time>
      </trkpt>
      <trkpt lat="46.94824" lon="4.30692">
        <ele>388</ele>
        <time>2020-07-03T14:22:24+02:00</time>
      </trkpt>
      <trkpt lat="46.94816" lon="4.30723">
        <ele>385</ele>
        <time>2020-07-03T14:24:32+02:00</time>
      </trkpt>
      <trkpt lat="46.94802" lon="4.3075">
        <ele>382</ele>
        <time>2020-07-03T14:24:32+02:00</time>
      </trkpt>
      <trkpt lat="46.94788" lon="4.30776">
        <ele>380</ele>
        <time>2020-07-03T14:24:32+02:00</time>
      </trkpt>
      <trkpt lat="46.94772" lon="4.30802">
        <ele>376</ele>
        <time>2020-07-03T14:24:32+02:00</time>
      </trkpt>
      <trkpt lat="46.94755" lon="4.30824">
        <ele>375</ele>
        <time>2020-07-03T14:24:32+02:00</time>
      </trkpt>
      <trkpt lat="46.94748" lon="4.30855">
        <ele>372</ele>
        <time>2020-07-03T14:24:32+02:00</time>
      </trkpt>
      <trkpt lat="46.94758" lon="4.30886">
        <ele>371</ele>
        <time>2020-07-03T14:26:40+02:00</time>
      </trkpt>
      <trkpt lat="46.9477" lon="4.30916">
        <ele>369</ele>
        <time>2020-07-03T14:26:40+02:00</time>
      </trkpt>
      <trkpt lat="46.94775" lon="4.30948">
        <ele>368</ele>
        <time>2020-07-03T14:26:40+02:00</time>
      </trkpt>
      <trkpt lat="46.94779" lon="4.30981">
        <ele>367</ele>
        <time>2020-07-03T14:26:40+02:00</time>
      </trkpt>
      <trkpt lat="46.94784" lon="4.31013">
        <ele>367</ele>
        <time>2020-07-03T14:26:40+02:00</time>
      </trkpt>
      <trkpt lat="46.94785" lon="4.31048">
        <ele>367</ele>
        <time>2020-07-03T14:26:40+02:00</time>
      </trkpt>
      <trkpt lat="46.94783" lon="4.31081">
        <ele>367</ele>
        <time>2020-07-03T14:26:40+02:00</time>
      </trkpt>
      <trkpt lat="46.94785" lon="4.31114">
        <ele>368</ele>
        <time>2020-07-03T14:28:48+02:00</time>
      </trkpt>
      <trkpt lat="46.94785" lon="4.31148">
        <ele>368</ele>
        <time>2020-07-03T14:28:48+02:00</time>
      </trkpt>
      <trkpt lat="46.94785" lon="4.31181">
        <ele>368</ele>
        <time>2020-07-03T14:28:48+02:00</time>
      </trkpt>
      <trkpt lat="46.94784" lon="4.31215">
        <ele>368</ele>
        <time>2020-07-03T14:28:48+02:00</time>
      </trkpt>
      <trkpt lat="46.94783" lon="4.31249">
        <ele>368</ele>
        <time>2020-07-03T14:28:48+02:00</time>
      </trkpt>
      <trkpt lat="46.94782" lon="4.31285">
        <ele>368</ele>
        <time>2020-07-03T14:28:48+02:00</time>
      </trkpt>
      <trkpt lat="46.94784" lon="4.31318">
        <ele>367</ele>
        <time>2020-07-03T14:28:48+02:00</time>
      </trkpt>
      <trkpt lat="46.94784" lon="4.31352">
        <ele>367</ele>
        <time>2020-07-03T14:30:56+02:00</time>
      </trkpt>
      <trkpt lat="46.94787" lon="4.31385">
        <ele>367</ele>
        <time>2020-07-03T14:30:56+02:00</time>
      </trkpt>
      <trkpt lat="46.94786" lon="4.31419">
        <ele>367</ele>
        <time>2020-07-03T14:30:56+02:00</time>
      </trkpt>
      <trkpt lat="46.94783" lon="4.31453">
        <ele>367</ele>
        <time>2020-07-03T14:30:56+02:00</time>
      </trkpt>
      <trkpt lat="46.94776" lon="4.31485">
        <ele>369</ele>
        <time>2020-07-03T14:30:56+02:00</time>
      </trkpt>
      <trkpt lat="46.94772" lon="4.31518">
        <ele>368</ele>
        <time>2020-07-03T14:30:56+02:00</time>
      </trkpt>
      <trkpt lat="46.94769" lon="4.31552">
        <ele>369</ele>
        <time>2020-07-03T14:33:04+02:00</time>
      </trkpt>
      <trkpt lat="46.94756" lon="4.31579">
        <ele>369</ele>
        <time>2020-07-03T14:33:04+02:00</time>
      </trkpt>
      <trkpt lat="46.94737" lon="4.31599">
        <ele>370</ele>
        <time>2020-07-03T14:33:04+02:00</time>
      </trkpt>
      <trkpt lat="46.94728" lon="4.3163">
        <ele>372</ele>
        <time>2020-07-03T14:33:04+02:00</time>
      </trkpt>
      <trkpt lat="46.94719" lon="4.31661">
        <ele>373</ele>
        <time>2020-07-03T14:33:04+02:00</time>
      </trkpt>
      <trkpt lat="46.94712" lon="4.31692">
        <ele>373</ele>
        <time>2020-07-03T14:33:04+02:00</time>
      </trkpt>
      <trkpt lat="46.94702" lon="4.31722">
        <ele>373</ele>
        <time>2020-07-03T14:35:12+02:00</time>
      </trkpt>
      <trkpt lat="46.94692" lon="4.31753">
        <ele>374</ele>
        <time>2020-07-03T14:35:12+02:00</time>
      </trkpt>
      <trkpt lat="46.94681" lon="4.31784">
        <ele>374</ele>
        <time>2020-07-03T14:35:12+02:00</time>
      </trkpt>
      <trkpt lat="46.94679" lon="4.31818">
        <ele>375</ele>
        <time>2020-07-03T14:35:12+02:00</time>
      </trkpt>
      <trkpt lat="46.94672" lon="4.31851">
        <ele>377</ele>
        <time>2020-07-03T14:35:12+02:00</time>
      </trkpt>
      <trkpt lat="46.94661" lon="4.3188">
        <ele>379</ele>
        <time>2020-07-03T14:35:12+02:00</time>
      </trkpt>
      <trkpt lat="46.94648" lon="4.31909">
        <ele>381</ele>
        <time>2020-07-03T14:37:20+02:00</time>
      </trkpt>
      <trkpt lat="46.94641" lon="4.31942">
        <ele>383</ele>
        <time>2020-07-03T14:37:20+02:00</time>
      </trkpt>
      <trkpt lat="46.94635" lon="4.31975">
        <ele>384</ele>
        <time>2020-07-03T14:37:20+02:00</time>
      </trkpt>
      <trkpt lat="46.94628" lon="4.32007">
        <ele>386</ele>
        <time>2020-07-03T14:37:20+02:00</time>
      </trkpt>
      <trkpt lat="46.94619" lon="4.32037">
        <ele>387</ele>
        <time>2020-07-03T14:37:20+02:00</time>
      </trkpt>
      <trkpt lat="46.94611" lon="4.32069">
        <ele>388</ele>
        <time>2020-07-03T14:37:20+02:00</time>
      </trkpt>
      <trkpt lat="46.94604" lon="4.32101">
        <ele>389</ele>
        <time>2020-07-03T14:39:28+02:00</time>
      </trkpt>
      <trkpt lat="46.94591" lon="4.32128">
        <ele>388</ele>
        <time>2020-07-03T14:39:28+02:00</time>
      </trkpt>
      <trkpt lat="46.94581" lon="4.3216">
        <ele>388</ele>
        <time>2020-07-03T14:39:28+02:00</time>
      </trkpt>
      <trkpt lat="46.94577" lon="4.32194">
        <ele>387</ele>
        <time>2020-07-03T14:39:28+02:00</time>
      </trkpt>
      <trkpt lat="46.94568" lon="4.32226">
        <ele>388</ele>
        <time>2020-07-03T14:39:28+02:00</time>
      </trkpt>
      <trkpt lat="46.94562" lon="4.32258">
        <ele>393</ele>
        <time>2020-07-03T14:39:28+02:00</time>
      </trkpt>
      <trkpt lat="46.94553" lon="4.3229">
        <ele>395</ele>
        <time>2020-07-03T14:41:36+02:00</time>
      </trkpt>
      <trkpt lat="46.94546" lon="4.32323">
        <ele>396</ele>
        <time>2020-07-03T14:41:36+02:00</time>
      </trkpt>
      <trkpt lat="46.94538" lon="4.32356">
        <ele>397</ele>
        <time>2020-07-03T14:41:36+02:00</time>
      </trkpt>
      <trkpt lat="46.94531" lon="4.32387">
        <ele>399</ele>
        <time>2020-07-03T14:41:36+02:00</time>
      </trkpt>
      <trkpt lat="46.94524" lon="4.3242">
        <ele>402</ele>
        <time>2020-07-03T14:41:36+02:00</time>
      </trkpt>
      <trkpt lat="46.9452" lon="4.32452">
        <ele>403</ele>
        <time>2020-07-03T14:41:36+02:00</time>
      </trkpt>
      <trkpt lat="46.94514" lon="4.32484">
        <ele>404</ele>
        <time>2020-07-03T14:43:44+02:00</time>
      </trkpt>
      <trkpt lat="46.94506" lon="4.32518">
        <ele>406</ele>
        <time>2020-07-03T14:43:44+02:00</time>
      </trkpt>
      <trkpt lat="46.94503" lon="4.32552">
        <ele>407</ele>
        <time>2020-07-03T14:43:44+02:00</time>
      </trkpt>
      <trkpt lat="46.94498" lon="4.32584">
        <ele>410</ele>
        <time>2020-07-03T14:43:44+02:00</time>
      </trkpt>
      <trkpt lat="46.94479" lon="4.32604">
        <ele>413</ele>
        <time>2020-07-03T14:43:44+02:00</time>
      </trkpt>
      <trkpt lat="46.94456" lon="4.32596">
        <ele>416</ele>
        <time>2020-07-03T14:45:52+02:00</time>
      </trkpt>
      <trkpt lat="46.94435" lon="4.32607">
        <ele>417</ele>
        <time>2020-07-03T14:45:52+02:00</time>
      </trkpt>
      <trkpt lat="46.94426" lon="4.32638">
        <ele>420</ele>
        <time>2020-07-03T14:45:52+02:00</time>
      </trkpt>
      <trkpt lat="46.94414" lon="4.32667">
        <ele>424</ele>
        <time>2020-07-03T14:45:52+02:00</time>
      </trkpt>
      <trkpt lat="46.94411" lon="4.327">
        <ele>426</ele>
        <time>2020-07-03T14:48:00+02:00</time>
      </trkpt>
      <trkpt lat="46.94407" lon="4.32735">
        <ele>431</ele>
        <time>2020-07-03T14:48:00+02:00</time>
      </trkpt>
      <trkpt lat="46.94405" lon="4.32768">
        <ele>442</ele>
        <time>2020-07-03T14:48:00+02:00</time>
      </trkpt>
      <trkpt lat="46.94407" lon="4.32802">
        <ele>449</ele>
        <time>2020-07-03T14:48:00+02:00</time>
      </trkpt>
      <trkpt lat="46.94413" lon="4.32834">
        <ele>455</ele>
        <time>2020-07-03T14:50:08+02:00</time>
      </trkpt>
      <trkpt lat="46.94406" lon="4.32866">
        <ele>462</ele>
        <time>2020-07-03T14:50:08+02:00</time>
      </trkpt>
      <trkpt lat="46.94426" lon="4.3288">
        <ele>466</ele>
        <time>2020-07-03T14:50:08+02:00</time>
      </trkpt>
      <trkpt lat="46.94426" lon="4.32914">
        <ele>469</ele>
        <time>2020-07-03T14:50:08+02:00</time>
      </trkpt>
      <trkpt lat="46.9441" lon="4.32939">
        <ele>473</ele>
        <time>2020-07-03T14:52:16+02:00</time>
      </trkpt>
      <trkpt lat="46.94402" lon="4.3297">
        <ele>479</ele>
        <time>2020-07-03T14:52:16+02:00</time>
      </trkpt>
      <trkpt lat="46.94392" lon="4.32999">
        <ele>483</ele>
        <time>2020-07-03T14:52:16+02:00</time>
      </trkpt>
      <trkpt lat="46.94405" lon="4.33027">
        <ele>488</ele>
        <time>2020-07-03T14:54:24+02:00</time>
      </trkpt>
      <trkpt lat="46.94396" lon="4.33058">
        <ele>495</ele>
        <time>2020-07-03T14:54:24+02:00</time>
      </trkpt>
      <trkpt lat="46.94394" lon="4.33094">
        <ele>501</ele>
        <time>2020-07-03T14:54:24+02:00</time>
      </trkpt>
      <trkpt lat="46.94384" lon="4.33124">
        <ele>505</ele>
        <time>2020-07-03T14:56:32+02:00</time>
      </trkpt>
      <trkpt lat="46.94362" lon="4.33133">
        <ele>511</ele>
        <time>2020-07-03T14:56:32+02:00</time>
      </trkpt>
      <trkpt lat="46.94341" lon="4.33148">
        <ele>516</ele>
        <time>2020-07-03T14:56:32+02:00</time>
      </trkpt>
      <trkpt lat="46.94364" lon="4.33153">
        <ele>522</ele>
        <time>2020-07-03T14:58:40+02:00</time>
      </trkpt>
      <trkpt lat="46.94385" lon="4.3314">
        <ele>524</ele>
        <time>2020-07-03T14:58:40+02:00</time>
      </trkpt>
      <trkpt lat="46.94409" lon="4.3313">
        <ele>523</ele>
        <time>2020-07-03T14:58:40+02:00</time>
      </trkpt>
      <trkpt lat="46.9443" lon="4.33118">
        <ele>519</ele>
        <time>2020-07-03T14:58:40+02:00</time>
      </trkpt>
      <trkpt lat="46.9445" lon="4.33102">
        <ele>516</ele>
        <time>2020-07-03T15:00:48+02:00</time>
      </trkpt>
      <trkpt lat="46.94472" lon="4.33093">
        <ele>513</ele>
        <time>2020-07-03T15:00:48+02:00</time>
      </trkpt>
      <trkpt lat="46.94496" lon="4.33093">
        <ele>511</ele>
        <time>2020-07-03T15:00:48+02:00</time>
      </trkpt>
      <trkpt lat="46.94519" lon="4.33099">
        <ele>510</ele>
        <time>2020-07-03T15:00:48+02:00</time>
      </trkpt>
      <trkpt lat="46.94541" lon="4.33112">
        <ele>508</ele>
        <time>2020-07-03T15:00:48+02:00</time>
      </trkpt>
      <trkpt lat="46.94563" lon="4.33121">
        <ele>503</ele>
        <time>2020-07-03T15:00:48+02:00</time>
      </trkpt>
      <trkpt lat="46.94581" lon="4.33142">
        <ele>500</ele>
        <time>2020-07-03T15:02:56+02:00</time>
      </trkpt>
      <trkpt lat="46.94596" lon="4.33168">
        <ele>500</ele>
        <time>2020-07-03T15:02:56+02:00</time>
      </trkpt>
      <trkpt lat="46.9461" lon="4.33195">
        <ele>499</ele>
        <time>2020-07-03T15:02:56+02:00</time>
      </trkpt>
      <trkpt lat="46.94617" lon="4.33228">
        <ele>492</ele>
        <time>2020-07-03T15:02:56+02:00</time>
      </trkpt>
      <trkpt lat="46.94607" lon="4.33259">
        <ele>492</ele>
        <time>2020-07-03T15:02:56+02:00</time>
      </trkpt>
      <trkpt lat="46.94601" lon="4.33293">
        <ele>494</ele>
        <time>2020-07-03T15:05:04+02:00</time>
      </trkpt>
      <trkpt lat="46.94598" lon="4.33329">
        <ele>501</ele>
        <time>2020-07-03T15:05:04+02:00</time>
      </trkpt>
      <trkpt lat="46.94583" lon="4.33354">
        <ele>504</ele>
        <time>2020-07-03T15:05:04+02:00</time>
      </trkpt>
      <trkpt lat="46.9457" lon="4.33382">
        <ele>507</ele>
        <time>2020-07-03T15:05:04+02:00</time>
      </trkpt>
      <trkpt lat="46.94557" lon="4.33409">
        <ele>510</ele>
        <time>2020-07-03T15:05:04+02:00</time>
      </trkpt>
      <trkpt lat="46.94548" lon="4.3344">
        <ele>515</ele>
        <time>2020-07-03T15:07:12+02:00</time>
      </trkpt>
      <trkpt lat="46.94542" lon="4.33474">
        <ele>517</ele>
        <time>2020-07-03T15:07:12+02:00</time>
      </trkpt>
      <trkpt lat="46.94528" lon="4.335">
        <ele>520</ele>
        <time>2020-07-03T15:07:12+02:00</time>
      </trkpt>
      <trkpt lat="46.94506" lon="4.3351">
        <ele>521</ele>
        <time>2020-07-03T15:07:12+02:00</time>
      </trkpt>
      <trkpt lat="46.94506" lon="4.33544">
        <ele>523</ele>
        <time>2020-07-03T15:07:12+02:00</time>
      </trkpt>
      <trkpt lat="46.94507" lon="4.33578">
        <ele>527</ele>
        <time>2020-07-03T15:09:20+02:00</time>
      </trkpt>
      <trkpt lat="46.94491" lon="4.33605">
        <ele>530</ele>
        <time>2020-07-03T15:09:20+02:00</time>
      </trkpt>
      <trkpt lat="46.94471" lon="4.33623">
        <ele>532</ele>
        <time>2020-07-03T15:09:20+02:00</time>
      </trkpt>
      <trkpt lat="46.94454" lon="4.33644">
        <ele>534</ele>
        <time>2020-07-03T15:09:20+02:00</time>
      </trkpt>
      <trkpt lat="46.94437" lon="4.33665">
        <ele>537</ele>
        <time>2020-07-03T15:09:20+02:00</time>
      </trkpt>
      <trkpt lat="46.94427" lon="4.33696">
        <ele>540</ele>
        <time>2020-07-03T15:09:20+02:00</time>
      </trkpt>
      <trkpt lat="46.94407" lon="4.33715">
        <ele>541</ele>
        <time>2020-07-03T15:11:28+02:00</time>
      </trkpt>
      <trkpt lat="46.94414" lon="4.33747">
        <ele>541</ele>
        <time>2020-07-03T15:11:28+02:00</time>
      </trkpt>
      <trkpt lat="46.94404" lon="4.33777">
        <ele>536</ele>
        <time>2020-07-03T15:11:28+02:00</time>
      </trkpt>
      <trkpt lat="46.94403" lon="4.3381">
        <ele>537</ele>
        <time>2020-07-03T15:11:28+02:00</time>
      </trkpt>
      <trkpt lat="46.94406" lon="4.33843">
        <ele>538</ele>
        <time>2020-07-03T15:11:28+02:00</time>
      </trkpt>
      <trkpt lat="46.94412" lon="4.33875">
        <ele>540</ele>
        <time>2020-07-03T15:11:28+02:00</time>
      </trkpt>
      <trkpt lat="46.94412" lon="4.3391">
        <ele>539</ele>
        <time>2020-07-03T15:13:36+02:00</time>
      </trkpt>
      <trkpt lat="46.94416" lon="4.33944">
        <ele>539</ele>
        <time>2020-07-03T15:13:36+02:00</time>
      </trkpt>
      <trkpt lat="46.94407" lon="4.33976">
        <ele>540</ele>
        <time>2020-07-03T15:13:36+02:00</time>
      </trkpt>
      <trkpt lat="46.94413" lon="4.34009">
        <ele>540</ele>
        <time>2020-07-03T15:13:36+02:00</time>
      </trkpt>
      <trkpt lat="46.94403" lon="4.34039">
        <ele>538</ele>
        <time>2020-07-03T15:13:36+02:00</time>
      </trkpt>
      <trkpt lat="46.944" lon="4.34073">
        <ele>541</ele>
        <time>2020-07-03T15:13:36+02:00</time>
      </trkpt>
      <trkpt lat="46.94379" lon="4.34087">
        <ele>540</ele>
        <time>2020-07-03T15:15:44+02:00</time>
      </trkpt>
      <trkpt lat="46.94362" lon="4.3411">
        <ele>540</ele>
        <time>2020-07-03T15:15:44+02:00</time>
      </trkpt>
      <trkpt lat="46.94341" lon="4.3412">
        <ele>538</ele>
        <time>2020-07-03T15:15:44+02:00</time>
      </trkpt>
      <trkpt lat="46.9434" lon="4.34157">
        <ele>536</ele>
        <time>2020-07-03T15:15:44+02:00</time>
      </trkpt>
      <trkpt lat="46.94321" lon="4.34174">
        <ele>530</ele>
        <time>2020-07-03T15:15:44+02:00</time>
      </trkpt>
      <trkpt lat="46.943" lon="4.3416">
        <ele>527</ele>
        <time>2020-07-03T15:15:44+02:00</time>
      </trkpt>
      <trkpt lat="46.94277" lon="4.34151">
        <ele>528</ele>
        <time>2020-07-03T15:15:44+02:00</time>
      </trkpt>
      <trkpt lat="46.94255" lon="4.34143">
        <ele>528</ele>
        <time>2020-07-03T15:17:52+02:00</time>
      </trkpt>
      <trkpt lat="46.94233" lon="4.34129">
        <ele>528</ele>
        <time>2020-07-03T15:17:52+02:00</time>
      </trkpt>
      <trkpt lat="46.94212" lon="4.34118">
        <ele>526</ele>
        <time>2020-07-03T15:17:52+02:00</time>
      </trkpt>
      <trkpt lat="46.9419" lon="4.34109">
        <ele>525</ele>
        <time>2020-07-03T15:17:52+02:00</time>
      </trkpt>
      <trkpt lat="46.94167" lon="4.34105">
        <ele>526</ele>
        <time>2020-07-03T15:17:52+02:00</time>
      </trkpt>
      <trkpt lat="46.94148" lon="4.34124">
        <ele>536</ele>
        <time>2020-07-03T15:20:00+02:00</time>
      </trkpt>
      <trkpt lat="46.94151" lon="4.34159">
        <ele>539</ele>
        <time>2020-07-03T15:20:00+02:00</time>
      </trkpt>
      <trkpt lat="46.94154" lon="4.34194">
        <ele>537</ele>
        <time>2020-07-03T15:20:00+02:00</time>
      </trkpt>
      <trkpt lat="46.94163" lon="4.34224">
        <ele>535</ele>
        <time>2020-07-03T15:20:00+02:00</time>
      </trkpt>
      <trkpt lat="46.94167" lon="4.34259">
        <ele>532</ele>
        <time>2020-07-03T15:20:00+02:00</time>
      </trkpt>
      <trkpt lat="46.94173" lon="4.34292">
        <ele>530</ele>
        <time>2020-07-03T15:22:08+02:00</time>
      </trkpt>
      <trkpt lat="46.94187" lon="4.34321">
        <ele>528</ele>
        <time>2020-07-03T15:22:08+02:00</time>
      </trkpt>
      <trkpt lat="46.94191" lon="4.34356">
        <ele>529</ele>
        <time>2020-07-03T15:22:08+02:00</time>
      </trkpt>
      <trkpt lat="46.94206" lon="4.34382">
        <ele>529</ele>
        <time>2020-07-03T15:22:08+02:00</time>
      </trkpt>
      <trkpt lat="46.94219" lon="4.34412">
        <ele>527</ele>
        <time>2020-07-03T15:22:08+02:00</time>
      </trkpt>
      <trkpt lat="46.94235" lon="4.34439">
        <ele>529</ele>
        <time>2020-07-03T15:22:08+02:00</time>
      </trkpt>
      <trkpt lat="46.94252" lon="4.34461">
        <ele>532</ele>
        <time>2020-07-03T15:24:16+02:00</time>
      </trkpt>
      <trkpt lat="46.94267" lon="4.34486">
        <ele>533</ele>
        <time>2020-07-03T15:24:16+02:00</time>
      </trkpt>
      <trkpt lat="46.94287" lon="4.34503">
        <ele>534</ele>
        <time>2020-07-03T15:24:16+02:00</time>
      </trkpt>
      <trkpt lat="46.943" lon="4.34533">
        <ele>537</ele>
        <time>2020-07-03T15:24:16+02:00</time>
      </trkpt>
      <trkpt lat="46.9432" lon="4.34549">
        <ele>538</ele>
        <time>2020-07-03T15:24:16+02:00</time>
      </trkpt>
      <trkpt lat="46.94343" lon="4.34555">
        <ele>539</ele>
        <time>2020-07-03T15:26:24+02:00</time>
      </trkpt>
      <trkpt lat="46.94365" lon="4.34561">
        <ele>541</ele>
        <time>2020-07-03T15:26:24+02:00</time>
      </trkpt>
      <trkpt lat="46.94388" lon="4.34573">
        <ele>540</ele>
        <time>2020-07-03T15:26:24+02:00</time>
      </trkpt>
      <trkpt lat="46.9441" lon="4.34582">
        <ele>540</ele>
        <time>2020-07-03T15:26:24+02:00</time>
      </trkpt>
      <trkpt lat="46.94432" lon="4.34593">
        <ele>543</ele>
        <time>2020-07-03T15:26:24+02:00</time>
      </trkpt>
      <trkpt lat="46.94454" lon="4.34603">
        <ele>544</ele>
        <time>2020-07-03T15:26:24+02:00</time>
      </trkpt>
      <trkpt lat="46.94474" lon="4.34623">
        <ele>542</ele>
        <time>2020-07-03T15:28:32+02:00</time>
      </trkpt>
      <trkpt lat="46.94492" lon="4.34643">
        <ele>539</ele>
        <time>2020-07-03T15:28:32+02:00</time>
      </trkpt>
      <trkpt lat="46.94506" lon="4.34669">
        <ele>538</ele>
        <time>2020-07-03T15:28:32+02:00</time>
      </trkpt>
      <trkpt lat="46.94515" lon="4.34699">
        <ele>535</ele>
        <time>2020-07-03T15:28:32+02:00</time>
      </trkpt>
      <trkpt lat="46.94517" lon="4.34733">
        <ele>533</ele>
        <time>2020-07-03T15:28:32+02:00</time>
      </trkpt>
      <trkpt lat="46.94519" lon="4.34766">
        <ele>530</ele>
        <time>2020-07-03T15:28:32+02:00</time>
      </trkpt>
      <trkpt lat="46.94501" lon="4.34789">
        <ele>535</ele>
        <time>2020-07-03T15:30:40+02:00</time>
      </trkpt>
      <trkpt lat="46.94489" lon="4.3476">
        <ele>543</ele>
        <time>2020-07-03T15:30:40+02:00</time>
      </trkpt>
      <trkpt lat="46.94483" lon="4.34728">
        <ele>548</ele>
        <time>2020-07-03T15:30:40+02:00</time>
      </trkpt>
      <trkpt lat="46.9447" lon="4.347">
        <ele>550</ele>
        <time>2020-07-03T15:30:40+02:00</time>
      </trkpt>
      <trkpt lat="46.94456" lon="4.34673">
        <ele>548</ele>
        <time>2020-07-03T15:30:40+02:00</time>
      </trkpt>
      <trkpt lat="46.94436" lon="4.34656">
        <ele>545</ele>
        <time>2020-07-03T15:32:48+02:00</time>
      </trkpt>
      <trkpt lat="46.94413" lon="4.34657">
        <ele>544</ele>
        <time>2020-07-03T15:32:48+02:00</time>
      </trkpt>
      <trkpt lat="46.9439" lon="4.34657">
        <ele>543</ele>
        <time>2020-07-03T15:32:48+02:00</time>
      </trkpt>
      <trkpt lat="46.94367" lon="4.34656">
        <ele>545</ele>
        <time>2020-07-03T15:32:48+02:00</time>
      </trkpt>
      <trkpt lat="46.94345" lon="4.34663">
        <ele>546</ele>
        <time>2020-07-03T15:32:48+02:00</time>
      </trkpt>
      <trkpt lat="46.94322" lon="4.34655">
        <ele>551</ele>
        <time>2020-07-03T15:34:56+02:00</time>
      </trkpt>
      <trkpt lat="46.94299" lon="4.34645">
        <ele>551</ele>
        <time>2020-07-03T15:34:56+02:00</time>
      </trkpt>
      <trkpt lat="46.94277" lon="4.34636">
        <ele>551</ele>
        <time>2020-07-03T15:34:56+02:00</time>
      </trkpt>
      <trkpt lat="46.94254" lon="4.34631">
        <ele>554</ele>
        <time>2020-07-03T15:34:56+02:00</time>
      </trkpt>
      <trkpt lat="46.94235" lon="4.34612">
        <ele>557</ele>
        <time>2020-07-03T15:34:56+02:00</time>
      </trkpt>
      <trkpt lat="46.94214" lon="4.34597">
        <ele>559</ele>
        <time>2020-07-03T15:34:56+02:00</time>
      </trkpt>
      <trkpt lat="46.94197" lon="4.34576">
        <ele>560</ele>
        <time>2020-07-03T15:37:04+02:00</time>
      </trkpt>
      <trkpt lat="46.94176" lon="4.34561">
        <ele>563</ele>
        <time>2020-07-03T15:37:04+02:00</time>
      </trkpt>
      <trkpt lat="46.94158" lon="4.34541">
        <ele>565</ele>
        <time>2020-07-03T15:37:04+02:00</time>
      </trkpt>
      <trkpt lat="46.94141" lon="4.34519">
        <ele>570</ele>
        <time>2020-07-03T15:37:04+02:00</time>
      </trkpt>
      <trkpt lat="46.94124" lon="4.34496">
        <ele>574</ele>
        <time>2020-07-03T15:39:12+02:00</time>
      </trkpt>
      <trkpt lat="46.94109" lon="4.34471">
        <ele>578</ele>
        <time>2020-07-03T15:39:12+02:00</time>
      </trkpt>
      <trkpt lat="46.94093" lon="4.34444">
        <ele>583</ele>
        <time>2020-07-03T15:39:12+02:00</time>
      </trkpt>
      <trkpt lat="46.94081" lon="4.34415">
        <ele>589</ele>
        <time>2020-07-03T15:39:12+02:00</time>
      </trkpt>
      <trkpt lat="46.94072" lon="4.34385">
        <ele>596</ele>
        <time>2020-07-03T15:39:12+02:00</time>
      </trkpt>
      <trkpt lat="46.94066" lon="4.3435">
        <ele>599</ele>
        <time>2020-07-03T15:39:12+02:00</time>
      </trkpt>
      <trkpt lat="46.94056" lon="4.34319">
        <ele>599</ele>
        <time>2020-07-03T15:43:28+02:00</time>
      </trkpt>
      <trkpt lat="46.94045" lon="4.34289">
        <ele>597</ele>
        <time>2020-07-03T15:43:28+02:00</time>
      </trkpt>
      <trkpt lat="46.94031" lon="4.34261">
        <ele>597</ele>
        <time>2020-07-03T15:43:28+02:00</time>
      </trkpt>
      <trkpt lat="46.94016" lon="4.34234">
        <ele>598</ele>
        <time>2020-07-03T15:43:28+02:00</time>
      </trkpt>
      <trkpt lat="46.94001" lon="4.34208">
        <ele>597</ele>
        <time>2020-07-03T15:43:28+02:00</time>
      </trkpt>
      <trkpt lat="46.93987" lon="4.34181">
        <ele>593</ele>
        <time>2020-07-03T15:43:28+02:00</time>
      </trkpt>
      <trkpt lat="46.93971" lon="4.34155">
        <ele>593</ele>
        <time>2020-07-03T15:45:36+02:00</time>
      </trkpt>
      <trkpt lat="46.93958" lon="4.34122">
        <ele>592</ele>
        <time>2020-07-03T15:45:36+02:00</time>
      </trkpt>
      <trkpt lat="46.93942" lon="4.34098">
        <ele>593</ele>
        <time>2020-07-03T15:45:36+02:00</time>
      </trkpt>
      <trkpt lat="46.93935" lon="4.34067">
        <ele>595</ele>
        <time>2020-07-03T15:45:36+02:00</time>
      </trkpt>
      <trkpt lat="46.93933" lon="4.34032">
        <ele>597</ele>
        <time>2020-07-03T15:45:36+02:00</time>
      </trkpt>
      <trkpt lat="46.93934" lon="4.33998">
        <ele>598</ele>
        <time>2020-07-03T15:47:44+02:00</time>
      </trkpt>
      <trkpt lat="46.93946" lon="4.33968">
        <ele>600</ele>
        <time>2020-07-03T15:47:44+02:00</time>
      </trkpt>
      <trkpt lat="46.9396" lon="4.33939">
        <ele>600</ele>
        <time>2020-07-03T15:47:44+02:00</time>
      </trkpt>
      <trkpt lat="46.9396" lon="4.33905">
        <ele>598</ele>
        <time>2020-07-03T15:47:44+02:00</time>
      </trkpt>
      <trkpt lat="46.93969" lon="4.33874">
        <ele>593</ele>
        <time>2020-07-03T15:49:52+02:00</time>
      </trkpt>
      <trkpt lat="46.93975" lon="4.33842">
        <ele>593</ele>
        <time>2020-07-03T15:49:52+02:00</time>
      </trkpt>
      <trkpt lat="46.93996" lon="4.33831">
        <ele>592</ele>
        <time>2020-07-03T15:49:52+02:00</time>
      </trkpt>
      <trkpt lat="46.94019" lon="4.33824">
        <ele>590</ele>
        <time>2020-07-03T15:49:52+02:00</time>
      </trkpt>
      <trkpt lat="46.94042" lon="4.33816">
        <ele>589</ele>
        <time>2020-07-03T15:49:52+02:00</time>
      </trkpt>
      <trkpt lat="46.94065" lon="4.33811">
        <ele>587</ele>
        <time>2020-07-03T15:49:52+02:00</time>
      </trkpt>
      <trkpt lat="46.94087" lon="4.33806">
        <ele>585</ele>
        <time>2020-07-03T15:49:52+02:00</time>
      </trkpt>
      <trkpt lat="46.94109" lon="4.33793">
        <ele>584</ele>
        <time>2020-07-03T15:52:00+02:00</time>
      </trkpt>
      <trkpt lat="46.94131" lon="4.33784">
        <ele>584</ele>
        <time>2020-07-03T15:52:00+02:00</time>
      </trkpt>
      <trkpt lat="46.94149" lon="4.33764">
        <ele>584</ele>
        <time>2020-07-03T15:52:00+02:00</time>
      </trkpt>
      <trkpt lat="46.94164" lon="4.33738">
        <ele>583</ele>
        <time>2020-07-03T15:52:00+02:00</time>
      </trkpt>
      <trkpt lat="46.94181" lon="4.33714">
        <ele>581</ele>
        <time>2020-07-03T15:52:00+02:00</time>
      </trkpt>
      <trkpt lat="46.94196" lon="4.33688">
        <ele>580</ele>
        <time>2020-07-03T15:52:00+02:00</time>
      </trkpt>
      <trkpt lat="46.94213" lon="4.33665">
        <ele>579</ele>
        <time>2020-07-03T15:52:00+02:00</time>
      </trkpt>
      <trkpt lat="46.94226" lon="4.33637">
        <ele>578</ele>
        <time>2020-07-03T15:54:08+02:00</time>
      </trkpt>
      <trkpt lat="46.9424" lon="4.3361">
        <ele>576</ele>
        <time>2020-07-03T15:54:08+02:00</time>
      </trkpt>
      <trkpt lat="46.94254" lon="4.33582">
        <ele>576</ele>
        <time>2020-07-03T15:54:08+02:00</time>
      </trkpt>
      <trkpt lat="46.94265" lon="4.33552">
        <ele>574</ele>
        <time>2020-07-03T15:54:08+02:00</time>
      </trkpt>
      <trkpt lat="46.94272" lon="4.33519">
        <ele>573</ele>
        <time>2020-07-03T15:54:08+02:00</time>
      </trkpt>
      <trkpt lat="46.94275" lon="4.33487">
        <ele>572</ele>
        <time>2020-07-03T15:54:08+02:00</time>
      </trkpt>
      <trkpt lat="46.94272" lon="4.33452">
        <ele>570</ele>
        <time>2020-07-03T15:56:16+02:00</time>
      </trkpt>
      <trkpt lat="46.94264" lon="4.3342">
        <ele>570</ele>
        <time>2020-07-03T15:56:16+02:00</time>
      </trkpt>
      <trkpt lat="46.94252" lon="4.3339">
        <ele>569</ele>
        <time>2020-07-03T15:56:16+02:00</time>
      </trkpt>
      <trkpt lat="46.94236" lon="4.33366">
        <ele>568</ele>
        <time>2020-07-03T15:56:16+02:00</time>
      </trkpt>
      <trkpt lat="46.94218" lon="4.33343">
        <ele>567</ele>
        <time>2020-07-03T15:56:16+02:00</time>
      </trkpt>
      <trkpt lat="46.94199" lon="4.33324">
        <ele>567</ele>
        <time>2020-07-03T15:56:16+02:00</time>
      </trkpt>
      <trkpt lat="46.94178" lon="4.33307">
        <ele>568</ele>
        <time>2020-07-03T15:56:16+02:00</time>
      </trkpt>
      <trkpt lat="46.94163" lon="4.33282">
        <ele>568</ele>
        <time>2020-07-03T15:58:24+02:00</time>
      </trkpt>
      <trkpt lat="46.94158" lon="4.3325">
        <ele>570</ele>
        <time>2020-07-03T15:58:24+02:00</time>
      </trkpt>
      <trkpt lat="46.94154" lon="4.33215">
        <ele>572</ele>
        <time>2020-07-03T15:58:24+02:00</time>
      </trkpt>
      <trkpt lat="46.94145" lon="4.33183">
        <ele>571</ele>
        <time>2020-07-03T15:58:24+02:00</time>
      </trkpt>
      <trkpt lat="46.94135" lon="4.33153">
        <ele>569</ele>
        <time>2020-07-03T15:58:24+02:00</time>
      </trkpt>
      <trkpt lat="46.94127" lon="4.33121">
        <ele>572</ele>
        <time>2020-07-03T15:58:24+02:00</time>
      </trkpt>
      <trkpt lat="46.94116" lon="4.33092">
        <ele>573</ele>
        <time>2020-07-03T16:00:32+02:00</time>
      </trkpt>
      <trkpt lat="46.94102" lon="4.33064">
        <ele>574</ele>
        <time>2020-07-03T16:00:32+02:00</time>
      </trkpt>
      <trkpt lat="46.94086" lon="4.33038">
        <ele>578</ele>
        <time>2020-07-03T16:00:32+02:00</time>
      </trkpt>
      <trkpt lat="46.94067" lon="4.3302">
        <ele>576</ele>
        <time>2020-07-03T16:00:32+02:00</time>
      </trkpt>
      <trkpt lat="46.94045" lon="4.33007">
        <ele>577</ele>
        <time>2020-07-03T16:00:32+02:00</time>
      </trkpt>
      <trkpt lat="46.94022" lon="4.33002">
        <ele>577</ele>
        <time>2020-07-03T16:00:32+02:00</time>
      </trkpt>
      <trkpt lat="46.94001" lon="4.33014">
        <ele>581</ele>
        <time>2020-07-03T16:02:40+02:00</time>
      </trkpt>
      <trkpt lat="46.93976" lon="4.33023">
        <ele>586</ele>
        <time>2020-07-03T16:02:40+02:00</time>
      </trkpt>
      <trkpt lat="46.93954" lon="4.33033">
        <ele>587</ele>
        <time>2020-07-03T16:02:40+02:00</time>
      </trkpt>
      <trkpt lat="46.93931" lon="4.33025">
        <ele>589</ele>
        <time>2020-07-03T16:02:40+02:00</time>
      </trkpt>
      <trkpt lat="46.93908" lon="4.33019">
        <ele>590</ele>
        <time>2020-07-03T16:02:40+02:00</time>
      </trkpt>
      <trkpt lat="46.93885" lon="4.33008">
        <ele>591</ele>
        <time>2020-07-03T16:02:40+02:00</time>
      </trkpt>
      <trkpt lat="46.93863" lon="4.33002">
        <ele>591</ele>
        <time>2020-07-03T16:04:48+02:00</time>
      </trkpt>
      <trkpt lat="46.93839" lon="4.32999">
        <ele>591</ele>
        <time>2020-07-03T16:04:48+02:00</time>
      </trkpt>
      <trkpt lat="46.93816" lon="4.33004">
        <ele>591</ele>
        <time>2020-07-03T16:04:48+02:00</time>
      </trkpt>
      <trkpt lat="46.93793" lon="4.33012">
        <ele>592</ele>
        <time>2020-07-03T16:04:48+02:00</time>
      </trkpt>
      <trkpt lat="46.9377" lon="4.33024">
        <ele>592</ele>
        <time>2020-07-03T16:04:48+02:00</time>
      </trkpt>
      <trkpt lat="46.93753" lon="4.33047">
        <ele>593</ele>
        <time>2020-07-03T16:04:48+02:00</time>
      </trkpt>
      <trkpt lat="46.93731" lon="4.33054">
        <ele>595</ele>
        <time>2020-07-03T16:06:56+02:00</time>
      </trkpt>
      <trkpt lat="46.93706" lon="4.33051">
        <ele>595</ele>
        <time>2020-07-03T16:06:56+02:00</time>
      </trkpt>
      <trkpt lat="46.93684" lon="4.33038">
        <ele>594</ele>
        <time>2020-07-03T16:06:56+02:00</time>
      </trkpt>
      <trkpt lat="46.9367" lon="4.33011">
        <ele>592</ele>
        <time>2020-07-03T16:06:56+02:00</time>
      </trkpt>
      <trkpt lat="46.93653" lon="4.32987">
        <ele>592</ele>
        <time>2020-07-03T16:06:56+02:00</time>
      </trkpt>
      <trkpt lat="46.93638" lon="4.32961">
        <ele>590</ele>
        <time>2020-07-03T16:06:56+02:00</time>
      </trkpt>
      <trkpt lat="46.9362" lon="4.32939">
        <ele>587</ele>
        <time>2020-07-03T16:06:56+02:00</time>
      </trkpt>
      <trkpt lat="46.93603" lon="4.32917">
        <ele>586</ele>
        <time>2020-07-03T16:09:04+02:00</time>
      </trkpt>
      <trkpt lat="46.93583" lon="4.32901">
        <ele>585</ele>
        <time>2020-07-03T16:09:04+02:00</time>
      </trkpt>
      <trkpt lat="46.93564" lon="4.32881">
        <ele>587</ele>
        <time>2020-07-03T16:09:04+02:00</time>
      </trkpt>
      <trkpt lat="46.93556" lon="4.32848">
        <ele>587</ele>
        <time>2020-07-03T16:09:04+02:00</time>
      </trkpt>
      <trkpt lat="46.93565" lon="4.32817">
        <ele>587</ele>
        <time>2020-07-03T16:09:04+02:00</time>
      </trkpt>
      <trkpt lat="46.93577" lon="4.32788">
        <ele>586</ele>
        <time>2020-07-03T16:09:04+02:00</time>
      </trkpt>
      <trkpt lat="46.93592" lon="4.32761">
        <ele>585</ele>
        <time>2020-07-03T16:09:04+02:00</time>
      </trkpt>
      <trkpt lat="46.93601" lon="4.3273">
        <ele>585</ele>
        <time>2020-07-03T16:11:12+02:00</time>
      </trkpt>
      <trkpt lat="46.93604" lon="4.32696">
        <ele>585</ele>
        <time>2020-07-03T16:11:12+02:00</time>
      </trkpt>
      <trkpt lat="46.93611" lon="4.32663">
        <ele>586</ele>
        <time>2020-07-03T16:11:12+02:00</time>
      </trkpt>
      <trkpt lat="46.93612" lon="4.3263">
        <ele>586</ele>
        <time>2020-07-03T16:11:12+02:00</time>
      </trkpt>
      <trkpt lat="46.93606" lon="4.32598">
        <ele>587</ele>
        <time>2020-07-03T16:11:12+02:00</time>
      </trkpt>
      <trkpt lat="46.93595" lon="4.32568">
        <ele>587</ele>
        <time>2020-07-03T16:11:12+02:00</time>
      </trkpt>
      <trkpt lat="46.93577" lon="4.32546">
        <ele>585</ele>
        <time>2020-07-03T16:11:12+02:00</time>
      </trkpt>
      <trkpt lat="46.93557" lon="4.32529">
        <ele>585</ele>
        <time>2020-07-03T16:13:20+02:00</time>
      </trkpt>
      <trkpt lat="46.93535" lon="4.32518">
        <ele>588</ele>
        <time>2020-07-03T16:13:20+02:00</time>
      </trkpt>
      <trkpt lat="46.93512" lon="4.32514">
        <ele>591</ele>
        <time>2020-07-03T16:13:20+02:00</time>
      </trkpt>
      <trkpt lat="46.93489" lon="4.32512">
        <ele>591</ele>
        <time>2020-07-03T16:13:20+02:00</time>
      </trkpt>
      <trkpt lat="46.93467" lon="4.32505">
        <ele>591</ele>
        <time>2020-07-03T16:13:20+02:00</time>
      </trkpt>
      <trkpt lat="46.93444" lon="4.325">
        <ele>591</ele>
        <time>2020-07-03T16:13:20+02:00</time>
      </trkpt>
      <trkpt lat="46.93421" lon="4.32495">
        <ele>591</ele>
        <time>2020-07-03T16:13:20+02:00</time>
      </trkpt>
      <trkpt lat="46.93399" lon="4.32486">
        <ele>595</ele>
        <time>2020-07-03T16:15:28+02:00</time>
      </trkpt>
      <trkpt lat="46.93376" lon="4.32485">
        <ele>595</ele>
        <time>2020-07-03T16:15:28+02:00</time>
      </trkpt>
      <trkpt lat="46.93354" lon="4.32475">
        <ele>597</ele>
        <time>2020-07-03T16:15:28+02:00</time>
      </trkpt>
      <trkpt lat="46.9333" lon="4.32476">
        <ele>597</ele>
        <time>2020-07-03T16:15:28+02:00</time>
      </trkpt>
      <trkpt lat="46.93308" lon="4.32478">
        <ele>600</ele>
        <time>2020-07-03T16:15:28+02:00</time>
      </trkpt>
      <trkpt lat="46.93286" lon="4.32488">
        <ele>601</ele>
        <time>2020-07-03T16:15:28+02:00</time>
      </trkpt>
      <trkpt lat="46.93265" lon="4.32503">
        <ele>602</ele>
        <time>2020-07-03T16:17:36+02:00</time>
      </trkpt>
      <trkpt lat="46.93246" lon="4.32524">
        <ele>603</ele>
        <time>2020-07-03T16:17:36+02:00</time>
      </trkpt>
      <trkpt lat="46.93224" lon="4.32535">
        <ele>603</ele>
        <time>2020-07-03T16:17:36+02:00</time>
      </trkpt>
      <trkpt lat="46.93207" lon="4.32556">
        <ele>602</ele>
        <time>2020-07-03T16:17:36+02:00</time>
      </trkpt>
      <trkpt lat="46.93191" lon="4.32582">
        <ele>602</ele>
        <time>2020-07-03T16:17:36+02:00</time>
      </trkpt>
      <trkpt lat="46.9318" lon="4.32611">
        <ele>603</ele>
        <time>2020-07-03T16:17:36+02:00</time>
      </trkpt>
      <trkpt lat="46.9316" lon="4.32627">
        <ele>601</ele>
        <time>2020-07-03T16:17:36+02:00</time>
      </trkpt>
      <trkpt lat="46.93142" lon="4.32649">
        <ele>599</ele>
        <time>2020-07-03T16:19:44+02:00</time>
      </trkpt>
      <trkpt lat="46.93122" lon="4.32636">
        <ele>597</ele>
        <time>2020-07-03T16:19:44+02:00</time>
      </trkpt>
      <trkpt lat="46.93115" lon="4.32603">
        <ele>599</ele>
        <time>2020-07-03T16:19:44+02:00</time>
      </trkpt>
      <trkpt lat="46.93117" lon="4.32571">
        <ele>604</ele>
        <time>2020-07-03T16:19:44+02:00</time>
      </trkpt>
      <trkpt lat="46.93123" lon="4.32538">
        <ele>605</ele>
        <time>2020-07-03T16:19:44+02:00</time>
      </trkpt>
      <trkpt lat="46.93135" lon="4.32507">
        <ele>601</ele>
        <time>2020-07-03T16:21:52+02:00</time>
      </trkpt>
      <trkpt lat="46.93145" lon="4.32478">
        <ele>599</ele>
        <time>2020-07-03T16:21:52+02:00</time>
      </trkpt>
      <trkpt lat="46.93146" lon="4.32444">
        <ele>596</ele>
        <time>2020-07-03T16:21:52+02:00</time>
      </trkpt>
      <trkpt lat="46.93144" lon="4.32411">
        <ele>595</ele>
        <time>2020-07-03T16:21:52+02:00</time>
      </trkpt>
      <trkpt lat="46.9314" lon="4.32378">
        <ele>589</ele>
        <time>2020-07-03T16:24:00+02:00</time>
      </trkpt>
      <trkpt lat="46.93135" lon="4.32344">
        <ele>583</ele>
        <time>2020-07-03T16:24:00+02:00</time>
      </trkpt>
      <trkpt lat="46.93123" lon="4.32316">
        <ele>577</ele>
        <time>2020-07-03T16:24:00+02:00</time>
      </trkpt>
      <trkpt lat="46.9311" lon="4.32289">
        <ele>578</ele>
        <time>2020-07-03T16:24:00+02:00</time>
      </trkpt>
      <trkpt lat="46.93094" lon="4.32265">
        <ele>574</ele>
        <time>2020-07-03T16:24:00+02:00</time>
      </trkpt>
      <trkpt lat="46.93078" lon="4.3224">
        <ele>569</ele>
        <time>2020-07-03T16:24:00+02:00</time>
      </trkpt>
      <trkpt lat="46.93064" lon="4.32215">
        <ele>564</ele>
        <time>2020-07-03T16:26:08+02:00</time>
      </trkpt>
      <trkpt lat="46.93045" lon="4.32196">
        <ele>558</ele>
        <time>2020-07-03T16:26:08+02:00</time>
      </trkpt>
      <trkpt lat="46.93025" lon="4.32177">
        <ele>557</ele>
        <time>2020-07-03T16:26:08+02:00</time>
      </trkpt>
      <trkpt lat="46.93013" lon="4.32148">
        <ele>554</ele>
        <time>2020-07-03T16:26:08+02:00</time>
      </trkpt>
      <trkpt lat="46.93003" lon="4.32117">
        <ele>555</ele>
        <time>2020-07-03T16:26:08+02:00</time>
      </trkpt>
      <trkpt lat="46.93002" lon="4.32081">
        <ele>556</ele>
        <time>2020-07-03T16:26:08+02:00</time>
      </trkpt>
      <trkpt lat="46.93004" lon="4.32047">
        <ele>556</ele>
        <time>2020-07-03T16:28:16+02:00</time>
      </trkpt>
      <trkpt lat="46.92981" lon="4.3204">
        <ele>555</ele>
        <time>2020-07-03T16:28:16+02:00</time>
      </trkpt>
      <trkpt lat="46.92968" lon="4.32069">
        <ele>556</ele>
        <time>2020-07-03T16:28:16+02:00</time>
      </trkpt>
      <trkpt lat="46.92956" lon="4.32099">
        <ele>558</ele>
        <time>2020-07-03T16:28:16+02:00</time>
      </trkpt>
      <trkpt lat="46.92948" lon="4.32132">
        <ele>560</ele>
        <time>2020-07-03T16:30:24+02:00</time>
      </trkpt>
      <trkpt lat="46.9293" lon="4.32155">
        <ele>561</ele>
        <time>2020-07-03T16:30:24+02:00</time>
      </trkpt>
      <trkpt lat="46.92921" lon="4.32186">
        <ele>561</ele>
        <time>2020-07-03T16:30:24+02:00</time>
      </trkpt>
      <trkpt lat="46.92903" lon="4.32207">
        <ele>563</ele>
        <time>2020-07-03T16:30:24+02:00</time>
      </trkpt>
      <trkpt lat="46.92883" lon="4.32227">
        <ele>565</ele>
        <time>2020-07-03T16:30:24+02:00</time>
      </trkpt>
      <trkpt lat="46.92869" lon="4.32253">
        <ele>563</ele>
        <time>2020-07-03T16:30:24+02:00</time>
      </trkpt>
      <trkpt lat="46.92862" lon="4.32286">
        <ele>566</ele>
        <time>2020-07-03T16:32:32+02:00</time>
      </trkpt>
      <trkpt lat="46.92846" lon="4.3231">
        <ele>569</ele>
        <time>2020-07-03T16:32:32+02:00</time>
      </trkpt>
      <trkpt lat="46.92833" lon="4.32337">
        <ele>567</ele>
        <time>2020-07-03T16:32:32+02:00</time>
      </trkpt>
      <trkpt lat="46.92827" lon="4.32369">
        <ele>566</ele>
        <time>2020-07-03T16:32:32+02:00</time>
      </trkpt>
      <trkpt lat="46.92829" lon="4.32403">
        <ele>571</ele>
        <time>2020-07-03T16:32:32+02:00</time>
      </trkpt>
      <trkpt lat="46.92825" lon="4.32437">
        <ele>579</ele>
        <time>2020-07-03T16:34:40+02:00</time>
      </trkpt>
      <trkpt lat="46.92807" lon="4.32458">
        <ele>582</ele>
        <time>2020-07-03T16:34:40+02:00</time>
      </trkpt>
      <trkpt lat="46.928" lon="4.32489">
        <ele>582</ele>
        <time>2020-07-03T16:34:40+02:00</time>
      </trkpt>
      <trkpt lat="46.92784" lon="4.32514">
        <ele>581</ele>
        <time>2020-07-03T16:34:40+02:00</time>
      </trkpt>
      <trkpt lat="46.92779" lon="4.32547">
        <ele>581</ele>
        <time>2020-07-03T16:34:40+02:00</time>
      </trkpt>
      <trkpt lat="46.92768" lon="4.32576">
        <ele>582</ele>
        <time>2020-07-03T16:34:40+02:00</time>
      </trkpt>
      <trkpt lat="46.92745" lon="4.32591">
        <ele>583</ele>
        <time>2020-07-03T16:36:48+02:00</time>
      </trkpt>
      <trkpt lat="46.92728" lon="4.32614">
        <ele>586</ele>
        <time>2020-07-03T16:36:48+02:00</time>
      </trkpt>
      <trkpt lat="46.92707" lon="4.3263">
        <ele>585</ele>
        <time>2020-07-03T16:36:48+02:00</time>
      </trkpt>
      <trkpt lat="46.92687" lon="4.32645">
        <ele>588</ele>
        <time>2020-07-03T16:36:48+02:00</time>
      </trkpt>
      <trkpt lat="46.92665" lon="4.32659">
        <ele>592</ele>
        <time>2020-07-03T16:36:48+02:00</time>
      </trkpt>
      <trkpt lat="46.92643" lon="4.32661">
        <ele>594</ele>
        <time>2020-07-03T16:38:56+02:00</time>
      </trkpt>
      <trkpt lat="46.9262" lon="4.32662">
        <ele>594</ele>
        <time>2020-07-03T16:38:56+02:00</time>
      </trkpt>
      <trkpt lat="46.92597" lon="4.32655">
        <ele>595</ele>
        <time>2020-07-03T16:38:56+02:00</time>
      </trkpt>
      <trkpt lat="46.92575" lon="4.32642">
        <ele>594</ele>
        <time>2020-07-03T16:38:56+02:00</time>
      </trkpt>
      <trkpt lat="46.92558" lon="4.32621">
        <ele>596</ele>
        <time>2020-07-03T16:38:56+02:00</time>
      </trkpt>
      <trkpt lat="46.92539" lon="4.32602">
        <ele>598</ele>
        <time>2020-07-03T16:38:56+02:00</time>
      </trkpt>
      <trkpt lat="46.92519" lon="4.32585">
        <ele>599</ele>
        <time>2020-07-03T16:41:04+02:00</time>
      </trkpt>
      <trkpt lat="46.92497" lon="4.32587">
        <ele>596</ele>
        <time>2020-07-03T16:41:04+02:00</time>
      </trkpt>
      <trkpt lat="46.92474" lon="4.32581">
        <ele>597</ele>
        <time>2020-07-03T16:41:04+02:00</time>
      </trkpt>
      <trkpt lat="46.92452" lon="4.32573">
        <ele>596</ele>
        <time>2020-07-03T16:41:04+02:00</time>
      </trkpt>
      <trkpt lat="46.92429" lon="4.32571">
        <ele>591</ele>
        <time>2020-07-03T16:41:04+02:00</time>
      </trkpt>
      <trkpt lat="46.92406" lon="4.3258">
        <ele>591</ele>
        <time>2020-07-03T16:41:04+02:00</time>
      </trkpt>
      <trkpt lat="46.92384" lon="4.32576">
        <ele>591</ele>
        <time>2020-07-03T16:43:12+02:00</time>
      </trkpt>
      <trkpt lat="46.92366" lon="4.32551">
        <ele>589</ele>
        <time>2020-07-03T16:43:12+02:00</time>
      </trkpt>
      <trkpt lat="46.9235" lon="4.32528">
        <ele>592</ele>
        <time>2020-07-03T16:43:12+02:00</time>
      </trkpt>
      <trkpt lat="46.92334" lon="4.32506">
        <ele>594</ele>
        <time>2020-07-03T16:43:12+02:00</time>
      </trkpt>
      <trkpt lat="46.92316" lon="4.32484">
        <ele>597</ele>
        <time>2020-07-03T16:43:12+02:00</time>
      </trkpt>
      <trkpt lat="46.92303" lon="4.32454">
        <ele>601</ele>
        <time>2020-07-03T16:43:12+02:00</time>
      </trkpt>
      <trkpt lat="46.92293" lon="4.32424">
        <ele>601</ele>
        <time>2020-07-03T16:45:20+02:00</time>
      </trkpt>
      <trkpt lat="46.92291" lon="4.32392">
        <ele>606</ele>
        <time>2020-07-03T16:45:20+02:00</time>
      </trkpt>
      <trkpt lat="46.92289" lon="4.32358">
        <ele>609</ele>
        <time>2020-07-03T16:45:20+02:00</time>
      </trkpt>
      <trkpt lat="46.92289" lon="4.32324">
        <ele>612</ele>
        <time>2020-07-03T16:45:20+02:00</time>
      </trkpt>
      <trkpt lat="46.92286" lon="4.32291">
        <ele>612</ele>
        <time>2020-07-03T16:45:20+02:00</time>
      </trkpt>
      <trkpt lat="46.92275" lon="4.32259">
        <ele>611</ele>
        <time>2020-07-03T16:45:20+02:00</time>
      </trkpt>
      <trkpt lat="46.92259" lon="4.32235">
        <ele>609</ele>
        <time>2020-07-03T16:45:20+02:00</time>
      </trkpt>
      <trkpt lat="46.92248" lon="4.32206">
        <ele>610</ele>
        <time>2020-07-03T16:47:28+02:00</time>
      </trkpt>
      <trkpt lat="46.92235" lon="4.32174">
        <ele>612</ele>
        <time>2020-07-03T16:47:28+02:00</time>
      </trkpt>
      <trkpt lat="46.92223" lon="4.32145">
        <ele>610</ele>
        <time>2020-07-03T16:47:28+02:00</time>
      </trkpt>
      <trkpt lat="46.9221" lon="4.32117">
        <ele>611</ele>
        <time>2020-07-03T16:47:28+02:00</time>
      </trkpt>
      <trkpt lat="46.92198" lon="4.32088">
        <ele>611</ele>
        <time>2020-07-03T16:47:28+02:00</time>
      </trkpt>
      <trkpt lat="46.92184" lon="4.32059">
        <ele>613</ele>
        <time>2020-07-03T16:47:28+02:00</time>
      </trkpt>
      <trkpt lat="46.92172" lon="4.32031">
        <ele>611</ele>
        <time>2020-07-03T16:47:28+02:00</time>
      </trkpt>
      <trkpt lat="46.92158" lon="4.32004">
        <ele>609</ele>
        <time>2020-07-03T16:49:36+02:00</time>
      </trkpt>
      <trkpt lat="46.92147" lon="4.31974">
        <ele>608</ele>
        <time>2020-07-03T16:49:36+02:00</time>
      </trkpt>
      <trkpt lat="46.92133" lon="4.31947">
        <ele>609</ele>
        <time>2020-07-03T16:49:36+02:00</time>
      </trkpt>
      <trkpt lat="46.92126" lon="4.31915">
        <ele>612</ele>
        <time>2020-07-03T16:49:36+02:00</time>
      </trkpt>
      <trkpt lat="46.92118" lon="4.31883">
        <ele>616</ele>
        <time>2020-07-03T16:49:36+02:00</time>
      </trkpt>
      <trkpt lat="46.92115" lon="4.31849">
        <ele>616</ele>
        <time>2020-07-03T16:49:36+02:00</time>
      </trkpt>
      <trkpt lat="46.92111" lon="4.31814">
        <ele>613</ele>
        <time>2020-07-03T16:51:44+02:00</time>
      </trkpt>
      <trkpt lat="46.92106" lon="4.31781">
        <ele>614</ele>
        <time>2020-07-03T16:51:44+02:00</time>
      </trkpt>
      <trkpt lat="46.92097" lon="4.3175">
        <ele>616</ele>
        <time>2020-07-03T16:51:44+02:00</time>
      </trkpt>
      <trkpt lat="46.92089" lon="4.31718">
        <ele>616</ele>
        <time>2020-07-03T16:51:44+02:00</time>
      </trkpt>
      <trkpt lat="46.92078" lon="4.31688">
        <ele>615</ele>
        <time>2020-07-03T16:51:44+02:00</time>
      </trkpt>
      <trkpt lat="46.92072" lon="4.31656">
        <ele>615</ele>
        <time>2020-07-03T16:51:44+02:00</time>
      </trkpt>
      <trkpt lat="46.92065" lon="4.31624">
        <ele>614</ele>
        <time>2020-07-03T16:51:44+02:00</time>
      </trkpt>
      <trkpt lat="46.9206" lon="4.31587">
        <ele>612</ele>
        <time>2020-07-03T16:53:52+02:00</time>
      </trkpt>
      <trkpt lat="46.92082" lon="4.31577">
        <ele>609</ele>
        <time>2020-07-03T16:53:52+02:00</time>
      </trkpt>
      <trkpt lat="46.92105" lon="4.31572">
        <ele>611</ele>
        <time>2020-07-03T16:53:52+02:00</time>
      </trkpt>
      <trkpt lat="46.92126" lon="4.31563">
        <ele>613</ele>
        <time>2020-07-03T16:53:52+02:00</time>
      </trkpt>
      <trkpt lat="46.9215" lon="4.31558">
        <ele>614</ele>
        <time>2020-07-03T16:53:52+02:00</time>
      </trkpt>
      <trkpt lat="46.92169" lon="4.31542">
        <ele>617</ele>
        <time>2020-07-03T16:56:00+02:00</time>
      </trkpt>
      <trkpt lat="46.92187" lon="4.31521">
        <ele>621</ele>
        <time>2020-07-03T16:56:00+02:00</time>
      </trkpt>
      <trkpt lat="46.9221" lon="4.31514">
        <ele>624</ele>
        <time>2020-07-03T16:56:00+02:00</time>
      </trkpt>
      <trkpt lat="46.9223" lon="4.31497">
        <ele>626</ele>
        <time>2020-07-03T16:56:00+02:00</time>
      </trkpt>
      <trkpt lat="46.92253" lon="4.31491">
        <ele>627</ele>
        <time>2020-07-03T16:56:00+02:00</time>
      </trkpt>
      <trkpt lat="46.92276" lon="4.31493">
        <ele>631</ele>
        <time>2020-07-03T16:56:00+02:00</time>
      </trkpt>
      <trkpt lat="46.92298" lon="4.31491">
        <ele>630</ele>
        <time>2020-07-03T16:58:08+02:00</time>
      </trkpt>
      <trkpt lat="46.92322" lon="4.31492">
        <ele>629</ele>
        <time>2020-07-03T16:58:08+02:00</time>
      </trkpt>
      <trkpt lat="46.92344" lon="4.31486">
        <ele>629</ele>
        <time>2020-07-03T16:58:08+02:00</time>
      </trkpt>
      <trkpt lat="46.92368" lon="4.31479">
        <ele>631</ele>
        <time>2020-07-03T16:58:08+02:00</time>
      </trkpt>
      <trkpt lat="46.92392" lon="4.31474">
        <ele>631</ele>
        <time>2020-07-03T16:58:08+02:00</time>
      </trkpt>
      <trkpt lat="46.92415" lon="4.31478">
        <ele>631</ele>
        <time>2020-07-03T16:58:08+02:00</time>
      </trkpt>
      <trkpt lat="46.92435" lon="4.31493">
        <ele>631</ele>
        <time>2020-07-03T17:00:16+02:00</time>
      </trkpt>
      <trkpt lat="46.92457" lon="4.31504">
        <ele>631</ele>
        <time>2020-07-03T17:00:16+02:00</time>
      </trkpt>
      <trkpt lat="46.9248" lon="4.31514">
        <ele>631</ele>
        <time>2020-07-03T17:00:16+02:00</time>
      </trkpt>
      <trkpt lat="46.92503" lon="4.31521">
        <ele>631</ele>
        <time>2020-07-03T17:00:16+02:00</time>
      </trkpt>
      <trkpt lat="46.92527" lon="4.31519">
        <ele>630</ele>
        <time>2020-07-03T17:00:16+02:00</time>
      </trkpt>
      <trkpt lat="46.9255" lon="4.31512">
        <ele>629</ele>
        <time>2020-07-03T17:00:16+02:00</time>
      </trkpt>
      <trkpt lat="46.92572" lon="4.31501">
        <ele>629</ele>
        <time>2020-07-03T17:02:24+02:00</time>
      </trkpt>
      <trkpt lat="46.92595" lon="4.31502">
        <ele>629</ele>
        <time>2020-07-03T17:02:24+02:00</time>
      </trkpt>
      <trkpt lat="46.92618" lon="4.31497">
        <ele>626</ele>
        <time>2020-07-03T17:02:24+02:00</time>
      </trkpt>
      <trkpt lat="46.92641" lon="4.31491">
        <ele>622</ele>
        <time>2020-07-03T17:02:24+02:00</time>
      </trkpt>
      <trkpt lat="46.92658" lon="4.31468">
        <ele>616</ele>
        <time>2020-07-03T17:02:24+02:00</time>
      </trkpt>
      <trkpt lat="46.92671" lon="4.31441">
        <ele>614</ele>
        <time>2020-07-03T17:02:24+02:00</time>
      </trkpt>
      <trkpt lat="46.92686" lon="4.31416">
        <ele>610</ele>
        <time>2020-07-03T17:04:32+02:00</time>
      </trkpt>
      <trkpt lat="46.92701" lon="4.31391">
        <ele>609</ele>
        <time>2020-07-03T17:04:32+02:00</time>
      </trkpt>
      <trkpt lat="46.92721" lon="4.31374">
        <ele>605</ele>
        <time>2020-07-03T17:04:32+02:00</time>
      </trkpt>
      <trkpt lat="46.92744" lon="4.31376">
        <ele>602</ele>
        <time>2020-07-03T17:04:32+02:00</time>
      </trkpt>
      <trkpt lat="46.92762" lon="4.31397">
        <ele>603</ele>
        <time>2020-07-03T17:04:32+02:00</time>
      </trkpt>
      <trkpt lat="46.92777" lon="4.31423">
        <ele>605</ele>
        <time>2020-07-03T17:06:40+02:00</time>
      </trkpt>
      <trkpt lat="46.92792" lon="4.31449">
        <ele>606</ele>
        <time>2020-07-03T17:06:40+02:00</time>
      </trkpt>
      <trkpt lat="46.9281" lon="4.31467">
        <ele>608</ele>
        <time>2020-07-03T17:06:40+02:00</time>
      </trkpt>
      <trkpt lat="46.92828" lon="4.31489">
        <ele>608</ele>
        <time>2020-07-03T17:06:40+02:00</time>
      </trkpt>
      <trkpt lat="46.92846" lon="4.31509">
        <ele>609</ele>
        <time>2020-07-03T17:06:40+02:00</time>
      </trkpt>
      <trkpt lat="46.92862" lon="4.31531">
        <ele>607</ele>
        <time>2020-07-03T17:06:40+02:00</time>
      </trkpt>
      <trkpt lat="46.92879" lon="4.31553">
        <ele>605</ele>
        <time>2020-07-03T17:06:40+02:00</time>
      </trkpt>
      <trkpt lat="46.92896" lon="4.31577">
        <ele>604</ele>
        <time>2020-07-03T17:08:48+02:00</time>
      </trkpt>
      <trkpt lat="46.92916" lon="4.31594">
        <ele>604</ele>
        <time>2020-07-03T17:08:48+02:00</time>
      </trkpt>
      <trkpt lat="46.92938" lon="4.31599">
        <ele>602</ele>
        <time>2020-07-03T17:08:48+02:00</time>
      </trkpt>
      <trkpt lat="46.92961" lon="4.31609">
        <ele>602</ele>
        <time>2020-07-03T17:08:48+02:00</time>
      </trkpt>
      <trkpt lat="46.92984" lon="4.31609">
        <ele>598</ele>
        <time>2020-07-03T17:08:48+02:00</time>
      </trkpt>
      <trkpt lat="46.93006" lon="4.31612">
        <ele>598</ele>
        <time>2020-07-03T17:08:48+02:00</time>
      </trkpt>
      <trkpt lat="46.93026" lon="4.31629">
        <ele>597</ele>
        <time>2020-07-03T17:13:04+02:00</time>
      </trkpt>
      <trkpt lat="46.93044" lon="4.3165">
        <ele>596</ele>
        <time>2020-07-03T17:13:04+02:00</time>
      </trkpt>
      <trkpt lat="46.93063" lon="4.31668">
        <ele>595</ele>
        <time>2020-07-03T17:13:04+02:00</time>
      </trkpt>
      <trkpt lat="46.93083" lon="4.31682">
        <ele>590</ele>
        <time>2020-07-03T17:13:04+02:00</time>
      </trkpt>
      <trkpt lat="46.93099" lon="4.31657">
        <ele>584</ele>
        <time>2020-07-03T17:13:04+02:00</time>
      </trkpt>
      <trkpt lat="46.93116" lon="4.31633">
        <ele>578</ele>
        <time>2020-07-03T17:13:04+02:00</time>
      </trkpt>
      <trkpt lat="46.93131" lon="4.31609">
        <ele>573</ele>
        <time>2020-07-03T17:15:12+02:00</time>
      </trkpt>
      <trkpt lat="46.93145" lon="4.3158">
        <ele>569</ele>
        <time>2020-07-03T17:15:12+02:00</time>
      </trkpt>
      <trkpt lat="46.93161" lon="4.31553">
        <ele>569</ele>
        <time>2020-07-03T17:15:12+02:00</time>
      </trkpt>
      <trkpt lat="46.93178" lon="4.31532">
        <ele>571</ele>
        <time>2020-07-03T17:15:12+02:00</time>
      </trkpt>
      <trkpt lat="46.93193" lon="4.31506">
        <ele>570</ele>
        <time>2020-07-03T17:15:12+02:00</time>
      </trkpt>
      <trkpt lat="46.93207" lon="4.31479">
        <ele>572</ele>
        <time>2020-07-03T17:15:12+02:00</time>
      </trkpt>
      <trkpt lat="46.93221" lon="4.31452">
        <ele>575</ele>
        <time>2020-07-03T17:17:20+02:00</time>
      </trkpt>
      <trkpt lat="46.93236" lon="4.31425">
        <ele>579</ele>
        <time>2020-07-03T17:17:20+02:00</time>
      </trkpt>
      <trkpt lat="46.93253" lon="4.31404">
        <ele>582</ele>
        <time>2020-07-03T17:17:20+02:00</time>
      </trkpt>
      <trkpt lat="46.9327" lon="4.3138">
        <ele>585</ele>
        <time>2020-07-03T17:17:20+02:00</time>
      </trkpt>
      <trkpt lat="46.93289" lon="4.31359">
        <ele>585</ele>
        <time>2020-07-03T17:17:20+02:00</time>
      </trkpt>
      <trkpt lat="46.93312" lon="4.31353">
        <ele>584</ele>
        <time>2020-07-03T17:19:28+02:00</time>
      </trkpt>
      <trkpt lat="46.93335" lon="4.31357">
        <ele>585</ele>
        <time>2020-07-03T17:19:28+02:00</time>
      </trkpt>
      <trkpt lat="46.93358" lon="4.31359">
        <ele>587</ele>
        <time>2020-07-03T17:19:28+02:00</time>
      </trkpt>
      <trkpt lat="46.93381" lon="4.31361">
        <ele>586</ele>
        <time>2020-07-03T17:19:28+02:00</time>
      </trkpt>
      <trkpt lat="46.93404" lon="4.31355">
        <ele>586</ele>
        <time>2020-07-03T17:19:28+02:00</time>
      </trkpt>
      <trkpt lat="46.93427" lon="4.31348">
        <ele>586</ele>
        <time>2020-07-03T17:19:28+02:00</time>
      </trkpt>
      <trkpt lat="46.93448" lon="4.31335">
        <ele>584</ele>
        <time>2020-07-03T17:19:28+02:00</time>
      </trkpt>
      <trkpt lat="46.93472" lon="4.3133">
        <ele>581</ele>
        <time>2020-07-03T17:21:36+02:00</time>
      </trkpt>
      <trkpt lat="46.93492" lon="4.31315">
        <ele>579</ele>
        <time>2020-07-03T17:21:36+02:00</time>
      </trkpt>
      <trkpt lat="46.93515" lon="4.31317">
        <ele>577</ele>
        <time>2020-07-03T17:21:36+02:00</time>
      </trkpt>
      <trkpt lat="46.93537" lon="4.31329">
        <ele>575</ele>
        <time>2020-07-03T17:21:36+02:00</time>
      </trkpt>
      <trkpt lat="46.9356" lon="4.31336">
        <ele>575</ele>
        <time>2020-07-03T17:21:36+02:00</time>
      </trkpt>
      <trkpt lat="46.93582" lon="4.31347">
        <ele>573</ele>
        <time>2020-07-03T17:21:36+02:00</time>
      </trkpt>
      <trkpt lat="46.93603" lon="4.3136">
        <ele>575</ele>
        <time>2020-07-03T17:23:44+02:00</time>
      </trkpt>
      <trkpt lat="46.93626" lon="4.31366">
        <ele>575</ele>
        <time>2020-07-03T17:23:44+02:00</time>
      </trkpt>
      <trkpt lat="46.93649" lon="4.31362">
        <ele>577</ele>
        <time>2020-07-03T17:23:44+02:00</time>
      </trkpt>
      <trkpt lat="46.93671" lon="4.31369">
        <ele>582</ele>
        <time>2020-07-03T17:23:44+02:00</time>
      </trkpt>
      <trkpt lat="46.93694" lon="4.31378">
        <ele>580</ele>
        <time>2020-07-03T17:23:44+02:00</time>
      </trkpt>
      <trkpt lat="46.93717" lon="4.31376">
        <ele>579</ele>
        <time>2020-07-03T17:23:44+02:00</time>
      </trkpt>
      <trkpt lat="46.93741" lon="4.31372">
        <ele>579</ele>
        <time>2020-07-03T17:25:52+02:00</time>
      </trkpt>
      <trkpt lat="46.93764" lon="4.31358">
        <ele>576</ele>
        <time>2020-07-03T17:25:52+02:00</time>
      </trkpt>
      <trkpt lat="46.93779" lon="4.31332">
        <ele>572</ele>
        <time>2020-07-03T17:25:52+02:00</time>
      </trkpt>
      <trkpt lat="46.93782" lon="4.313">
        <ele>571</ele>
        <time>2020-07-03T17:25:52+02:00</time>
      </trkpt>
      <trkpt lat="46.9378" lon="4.31264">
        <ele>572</ele>
        <time>2020-07-03T17:25:52+02:00</time>
      </trkpt>
      <trkpt lat="46.93774" lon="4.31229">
        <ele>572</ele>
        <time>2020-07-03T17:25:52+02:00</time>
      </trkpt>
      <trkpt lat="46.93771" lon="4.31195">
        <ele>570</ele>
        <time>2020-07-03T17:25:52+02:00</time>
      </trkpt>
      <trkpt lat="46.93763" lon="4.31163">
        <ele>567</ele>
        <time>2020-07-03T17:28:00+02:00</time>
      </trkpt>
      <trkpt lat="46.93761" lon="4.31131">
        <ele>566</ele>
        <time>2020-07-03T17:28:00+02:00</time>
      </trkpt>
      <trkpt lat="46.93756" lon="4.31096">
        <ele>564</ele>
        <time>2020-07-03T17:28:00+02:00</time>
      </trkpt>
      <trkpt lat="46.93752" lon="4.31062">
        <ele>565</ele>
        <time>2020-07-03T17:28:00+02:00</time>
      </trkpt>
      <trkpt lat="46.93748" lon="4.3103">
        <ele>564</ele>
        <time>2020-07-03T17:28:00+02:00</time>
      </trkpt>
      <trkpt lat="46.93745" lon="4.30997">
        <ele>564</ele>
        <time>2020-07-03T17:28:00+02:00</time>
      </trkpt>
      <trkpt lat="46.93739" lon="4.30963">
        <ele>562</ele>
        <time>2020-07-03T17:30:08+02:00</time>
      </trkpt>
      <trkpt lat="46.93737" lon="4.30929">
        <ele>560</ele>
        <time>2020-07-03T17:30:08+02:00</time>
      </trkpt>
      <trkpt lat="46.93733" lon="4.30896">
        <ele>560</ele>
        <time>2020-07-03T17:30:08+02:00</time>
      </trkpt>
      <trkpt lat="46.93729" lon="4.30862">
        <ele>562</ele>
        <time>2020-07-03T17:30:08+02:00</time>
      </trkpt>
      <trkpt lat="46.93724" lon="4.30829">
        <ele>564</ele>
        <time>2020-07-03T17:30:08+02:00</time>
      </trkpt>
      <trkpt lat="46.93712" lon="4.30801">
        <ele>563</ele>
        <time>2020-07-03T17:30:08+02:00</time>
      </trkpt>
      <trkpt lat="46.93704" lon="4.3077">
        <ele>560</ele>
        <time>2020-07-03T17:30:08+02:00</time>
      </trkpt>
      <trkpt lat="46.93693" lon="4.3074">
        <ele>558</ele>
        <time>2020-07-03T17:32:16+02:00</time>
      </trkpt>
      <trkpt lat="46.93688" lon="4.30707">
        <ele>555</ele>
        <time>2020-07-03T17:32:16+02:00</time>
      </trkpt>
      <trkpt lat="46.93672" lon="4.30678">
        <ele>554</ele>
        <time>2020-07-03T17:32:16+02:00</time>
      </trkpt>
      <trkpt lat="46.93669" lon="4.30645">
        <ele>552</ele>
        <time>2020-07-03T17:32:16+02:00</time>
      </trkpt>
      <trkpt lat="46.93657" lon="4.30617">
        <ele>549</ele>
        <time>2020-07-03T17:32:16+02:00</time>
      </trkpt>
      <trkpt lat="46.93648" lon="4.30585">
        <ele>546</ele>
        <time>2020-07-03T17:32:16+02:00</time>
      </trkpt>
      <trkpt lat="46.93638" lon="4.30555">
        <ele>542</ele>
        <time>2020-07-03T17:32:16+02:00</time>
      </trkpt>
      <trkpt lat="46.93629" lon="4.30523">
        <ele>539</ele>
        <time>2020-07-03T17:34:24+02:00</time>
      </trkpt>
      <trkpt lat="46.93628" lon="4.30489">
        <ele>538</ele>
        <time>2020-07-03T17:34:24+02:00</time>
      </trkpt>
      <trkpt lat="46.93628" lon="4.30454">
        <ele>541</ele>
        <time>2020-07-03T17:34:24+02:00</time>
      </trkpt>
      <trkpt lat="46.93628" lon="4.3042">
        <ele>542</ele>
        <time>2020-07-03T17:34:24+02:00</time>
      </trkpt>
      <trkpt lat="46.93614" lon="4.3039">
        <ele>542</ele>
        <time>2020-07-03T17:34:24+02:00</time>
      </trkpt>
      <trkpt lat="46.93612" lon="4.30356">
        <ele>539</ele>
        <time>2020-07-03T17:34:24+02:00</time>
      </trkpt>
      <trkpt lat="46.93607" lon="4.3032">
        <ele>538</ele>
        <time>2020-07-03T17:34:24+02:00</time>
      </trkpt>
      <trkpt lat="46.93591" lon="4.30295">
        <ele>537</ele>
        <time>2020-07-03T17:36:32+02:00</time>
      </trkpt>
      <trkpt lat="46.93584" lon="4.30263">
        <ele>536</ele>
        <time>2020-07-03T17:36:32+02:00</time>
      </trkpt>
      <trkpt lat="46.93568" lon="4.30239">
        <ele>536</ele>
        <time>2020-07-03T17:36:32+02:00</time>
      </trkpt>
      <trkpt lat="46.93549" lon="4.30219">
        <ele>534</ele>
        <time>2020-07-03T17:36:32+02:00</time>
      </trkpt>
      <trkpt lat="46.9354" lon="4.30189">
        <ele>534</ele>
        <time>2020-07-03T17:36:32+02:00</time>
      </trkpt>
      <trkpt lat="46.93525" lon="4.30163">
        <ele>533</ele>
        <time>2020-07-03T17:36:32+02:00</time>
      </trkpt>
      <trkpt lat="46.93511" lon="4.30135">
        <ele>530</ele>
        <time>2020-07-03T17:38:40+02:00</time>
      </trkpt>
      <trkpt lat="46.93497" lon="4.30108">
        <ele>528</ele>
        <time>2020-07-03T17:38:40+02:00</time>
      </trkpt>
      <trkpt lat="46.93486" lon="4.30078">
        <ele>527</ele>
        <time>2020-07-03T17:38:40+02:00</time>
      </trkpt>
      <trkpt lat="46.93469" lon="4.30053">
        <ele>526</ele>
        <time>2020-07-03T17:38:40+02:00</time>
      </trkpt>
      <trkpt lat="46.9345" lon="4.30033">
        <ele>528</ele>
        <time>2020-07-03T17:38:40+02:00</time>
      </trkpt>
      <trkpt lat="46.93429" lon="4.30015">
        <ele>529</ele>
        <time>2020-07-03T17:38:40+02:00</time>
      </trkpt>
      <trkpt lat="46.93421" lon="4.29983">
        <ele>527</ele>
        <time>2020-07-03T17:38:40+02:00</time>
      </trkpt>
      <trkpt lat="46.93423" lon="4.2995">
        <ele>526</ele>
        <time>2020-07-03T17:40:48+02:00</time>
      </trkpt>
      <trkpt lat="46.93424" lon="4.29917">
        <ele>524</ele>
        <time>2020-07-03T17:40:48+02:00</time>
      </trkpt>
      <trkpt lat="46.93423" lon="4.29881">
        <ele>522</ele>
        <time>2020-07-03T17:40:48+02:00</time>
      </trkpt>
      <trkpt lat="46.93429" lon="4.29849">
        <ele>516</ele>
        <time>2020-07-03T17:40:48+02:00</time>
      </trkpt>
      <trkpt lat="46.93431" lon="4.29815">
        <ele>515</ele>
        <time>2020-07-03T17:49:20+02:00</time>
      </trkpt>
      <trkpt lat="46.93426" lon="4.29782">
        <ele>515</ele>
        <time>2020-07-03T17:49:20+02:00</time>
      </trkpt>
      <trkpt lat="46.93421" lon="4.29749">
        <ele>517</ele>
        <time>2020-07-03T17:49:20+02:00</time>
      </trkpt>
      <trkpt lat="46.93417" lon="4.29717">
        <ele>517</ele>
        <time>2020-07-03T17:49:20+02:00</time>
      </trkpt>
      <trkpt lat="46.93433" lon="4.29693">
        <ele>515</ele>
        <time>2020-07-03T17:51:28+02:00</time>
      </trkpt>
      <trkpt lat="46.9345" lon="4.29714">
        <ele>511</ele>
        <time>2020-07-03T17:51:28+02:00</time>
      </trkpt>
      <trkpt lat="46.93467" lon="4.29739">
        <ele>506</ele>
        <time>2020-07-03T17:51:28+02:00</time>
      </trkpt>
      <trkpt lat="46.93483" lon="4.29762">
        <ele>502</ele>
        <time>2020-07-03T17:51:28+02:00</time>
      </trkpt>
      <trkpt lat="46.93503" lon="4.29779">
        <ele>497</ele>
        <time>2020-07-03T17:51:28+02:00</time>
      </trkpt>
      <trkpt lat="46.93526" lon="4.29774">
        <ele>492</ele>
        <time>2020-07-03T17:53:36+02:00</time>
      </trkpt>
      <trkpt lat="46.93548" lon="4.29776">
        <ele>491</ele>
        <time>2020-07-03T17:53:36+02:00</time>
      </trkpt>
      <trkpt lat="46.9357" lon="4.29787">
        <ele>488</ele>
        <time>2020-07-03T17:53:36+02:00</time>
      </trkpt>
      <trkpt lat="46.93592" lon="4.29788">
        <ele>483</ele>
        <time>2020-07-03T17:53:36+02:00</time>
      </trkpt>
      <trkpt lat="46.9361" lon="4.29767">
        <ele>477</ele>
        <time>2020-07-03T17:53:36+02:00</time>
      </trkpt>
      <trkpt lat="46.93627" lon="4.29793">
        <ele>473</ele>
        <time>2020-07-03T17:53:36+02:00</time>
      </trkpt>
      <trkpt lat="46.93649" lon="4.29787">
        <ele>465</ele>
        <time>2020-07-03T17:55:44+02:00</time>
      </trkpt>
      <trkpt lat="46.93655" lon="4.29753">
        <ele>458</ele>
        <time>2020-07-03T17:55:44+02:00</time>
      </trkpt>
      <trkpt lat="46.93676" lon="4.29767">
        <ele>453</ele>
        <time>2020-07-03T17:55:44+02:00</time>
      </trkpt>
      <trkpt lat="46.93686" lon="4.29797">
        <ele>449</ele>
        <time>2020-07-03T17:55:44+02:00</time>
      </trkpt>
      <trkpt lat="46.93706" lon="4.29814">
        <ele>446</ele>
        <time>2020-07-03T17:55:44+02:00</time>
      </trkpt>
      <trkpt lat="46.93725" lon="4.29832">
        <ele>441</ele>
        <time>2020-07-03T17:57:52+02:00</time>
      </trkpt>
      <trkpt lat="46.93747" lon="4.29826">
        <ele>439</ele>
        <time>2020-07-03T17:57:52+02:00</time>
      </trkpt>
      <trkpt lat="46.93768" lon="4.29812">
        <ele>439</ele>
        <time>2020-07-03T17:57:52+02:00</time>
      </trkpt>
      <trkpt lat="46.93786" lon="4.29793">
        <ele>437</ele>
        <time>2020-07-03T17:57:52+02:00</time>
      </trkpt>
      <trkpt lat="46.938" lon="4.29765">
        <ele>435</ele>
        <time>2020-07-03T17:57:52+02:00</time>
      </trkpt>
      <trkpt lat="46.93815" lon="4.29739">
        <ele>432</ele>
        <time>2020-07-03T17:57:52+02:00</time>
      </trkpt>
      <trkpt lat="46.93837" lon="4.29729">
        <ele>431</ele>
        <time>2020-07-03T17:57:52+02:00</time>
      </trkpt>
      <trkpt lat="46.9386" lon="4.29733">
        <ele>429</ele>
        <time>2020-07-03T18:00:00+02:00</time>
      </trkpt>
      <trkpt lat="46.93882" lon="4.29744">
        <ele>429</ele>
        <time>2020-07-03T18:00:00+02:00</time>
      </trkpt>
      <trkpt lat="46.93899" lon="4.29767">
        <ele>427</ele>
        <time>2020-07-03T18:00:00+02:00</time>
      </trkpt>
      <trkpt lat="46.93917" lon="4.29789">
        <ele>426</ele>
        <time>2020-07-03T18:00:00+02:00</time>
      </trkpt>
      <trkpt lat="46.93931" lon="4.29814">
        <ele>426</ele>
        <time>2020-07-03T18:02:08+02:00</time>
      </trkpt>
      <trkpt lat="46.93949" lon="4.29836">
        <ele>424</ele>
        <time>2020-07-03T18:02:08+02:00</time>
      </trkpt>
      <trkpt lat="46.9396" lon="4.29865">
        <ele>423</ele>
        <time>2020-07-03T18:02:08+02:00</time>
      </trkpt>
      <trkpt lat="46.93975" lon="4.2989">
        <ele>423</ele>
        <time>2020-07-03T18:02:08+02:00</time>
      </trkpt>
      <trkpt lat="46.93998" lon="4.29887">
        <ele>424</ele>
        <time>2020-07-03T18:02:08+02:00</time>
      </trkpt>
      <trkpt lat="46.94017" lon="4.29907">
        <ele>423</ele>
        <time>2020-07-03T18:02:08+02:00</time>
      </trkpt>
      <trkpt lat="46.94039" lon="4.29919">
        <ele>423</ele>
        <time>2020-07-03T18:04:16+02:00</time>
      </trkpt>
      <trkpt lat="46.94059" lon="4.29935">
        <ele>423</ele>
        <time>2020-07-03T18:04:16+02:00</time>
      </trkpt>
      <trkpt lat="46.9408" lon="4.29947">
        <ele>424</ele>
        <time>2020-07-03T18:04:16+02:00</time>
      </trkpt>
      <trkpt lat="46.94101" lon="4.29934">
        <ele>424</ele>
        <time>2020-07-03T18:04:16+02:00</time>
      </trkpt>
      <trkpt lat="46.94117" lon="4.29906">
        <ele>426</ele>
        <time>2020-07-03T18:04:16+02:00</time>
      </trkpt>
      <trkpt lat="46.94132" lon="4.29882">
        <ele>427</ele>
        <time>2020-07-03T18:06:24+02:00</time>
      </trkpt>
      <trkpt lat="46.94152" lon="4.29863">
        <ele>427</ele>
        <time>2020-07-03T18:06:24+02:00</time>
      </trkpt>
      <trkpt lat="46.94164" lon="4.29833">
        <ele>428</ele>
        <time>2020-07-03T18:06:24+02:00</time>
      </trkpt>
      <trkpt lat="46.94184" lon="4.29819">
        <ele>427</ele>
        <time>2020-07-03T18:06:24+02:00</time>
      </trkpt>
      <trkpt lat="46.94204" lon="4.29803">
        <ele>427</ele>
        <time>2020-07-03T18:08:32+02:00</time>
      </trkpt>
      <trkpt lat="46.94225" lon="4.2979">
        <ele>428</ele>
        <time>2020-07-03T18:08:32+02:00</time>
      </trkpt>
      <trkpt lat="46.94248" lon="4.29786">
        <ele>426</ele>
        <time>2020-07-03T18:08:32+02:00</time>
      </trkpt>
      <trkpt lat="46.94272" lon="4.29782">
        <ele>423</ele>
        <time>2020-07-03T18:08:32+02:00</time>
      </trkpt>
      <trkpt lat="46.94295" lon="4.29774">
        <ele>422</ele>
        <time>2020-07-03T18:08:32+02:00</time>
      </trkpt>
      <trkpt lat="46.94318" lon="4.29775">
        <ele>424</ele>
        <time>2020-07-03T18:08:32+02:00</time>
      </trkpt>
      <trkpt lat="46.94327" lon="4.29745">
        <ele>417</ele>
        <time>2020-07-03T18:10:40+02:00</time>
      </trkpt>
      <trkpt lat="46.94325" lon="4.29711">
        <ele>412</ele>
        <time>2020-07-03T18:10:40+02:00</time>
      </trkpt>
      <trkpt lat="46.94337" lon="4.29681">
        <ele>408</ele>
        <time>2020-07-03T18:10:40+02:00</time>
      </trkpt>
      <trkpt lat="46.94359" lon="4.2968">
        <ele>406</ele>
        <time>2020-07-03T18:12:48+02:00</time>
      </trkpt>
      <trkpt lat="46.94382" lon="4.29682">
        <ele>402</ele>
        <time>2020-07-03T18:12:48+02:00</time>
      </trkpt>
      <trkpt lat="46.94404" lon="4.29678">
        <ele>399</ele>
        <time>2020-07-03T18:12:48+02:00</time>
      </trkpt>
      <trkpt lat="46.94427" lon="4.2968">
        <ele>397</ele>
        <time>2020-07-03T18:12:48+02:00</time>
      </trkpt>
      <trkpt lat="46.9445" lon="4.29683">
        <ele>396</ele>
        <time>2020-07-03T18:14:56+02:00</time>
      </trkpt>
      <trkpt lat="46.94473" lon="4.29686">
        <ele>396</ele>
        <time>2020-07-03T18:14:56+02:00</time>
      </trkpt>
      <trkpt lat="46.94496" lon="4.29689">
        <ele>395</ele>
        <time>2020-07-03T18:14:56+02:00</time>
      </trkpt>
      <trkpt lat="46.94519" lon="4.29696">
        <ele>395</ele>
        <time>2020-07-03T18:14:56+02:00</time>
      </trkpt>
      <trkpt lat="46.94541" lon="4.29703">
        <ele>394</ele>
        <time>2020-07-03T18:14:56+02:00</time>
      </trkpt>
      <trkpt lat="46.94555" lon="4.29677">
        <ele>390</ele>
        <time>2020-07-03T18:17:04+02:00</time>
      </trkpt>
      <trkpt lat="46.94552" lon="4.29644">
        <ele>388</ele>
        <time>2020-07-03T18:17:04+02:00</time>
      </trkpt>
      <trkpt lat="46.9455" lon="4.29611">
        <ele>385</ele>
        <time>2020-07-03T18:17:04+02:00</time>
      </trkpt>
      <trkpt lat="46.94546" lon="4.29578">
        <ele>384</ele>
        <time>2020-07-03T18:17:04+02:00</time>
      </trkpt>
      <trkpt lat="46.94555" lon="4.29548">
        <ele>383</ele>
        <time>2020-07-03T18:19:12+02:00</time>
      </trkpt>
      <trkpt lat="46.94558" lon="4.29515">
        <ele>382</ele>
        <time>2020-07-03T18:19:12+02:00</time>
      </trkpt>
      <trkpt lat="46.94573" lon="4.29488">
        <ele>383</ele>
        <time>2020-07-03T18:19:12+02:00</time>
      </trkpt>
      <trkpt lat="46.94575" lon="4.29453">
        <ele>386</ele>
        <time>2020-07-03T18:19:12+02:00</time>
      </trkpt>
      <trkpt lat="46.94581" lon="4.2942">
        <ele>386</ele>
        <time>2020-07-03T18:19:12+02:00</time>
      </trkpt>
      <trkpt lat="46.94593" lon="4.29391">
        <ele>389</ele>
        <time>2020-07-03T18:19:12+02:00</time>
      </trkpt>
      <trkpt lat="46.94588" lon="4.29358">
        <ele>389</ele>
        <time>2020-07-03T18:19:12+02:00</time>
      </trkpt>
      <trkpt lat="46.94595" lon="4.29325">
        <ele>388</ele>
        <time>2020-07-03T18:21:20+02:00</time>
      </trkpt>
      <trkpt lat="46.94598" lon="4.29291">
        <ele>387</ele>
        <time>2020-07-03T18:21:20+02:00</time>
      </trkpt>
      <trkpt lat="46.94601" lon="4.29256">
        <ele>387</ele>
        <time>2020-07-03T18:21:20+02:00</time>
      </trkpt>
      <trkpt lat="46.94608" lon="4.29223">
        <ele>387</ele>
        <time>2020-07-03T18:21:20+02:00</time>
      </trkpt>
      <trkpt lat="46.94609" lon="4.29189">
        <ele>387</ele>
        <time>2020-07-03T18:21:20+02:00</time>
      </trkpt>
      <trkpt lat="46.94614" lon="4.29157">
        <ele>386</ele>
        <time>2020-07-03T18:21:20+02:00</time>
      </trkpt>
      <trkpt lat="46.94638" lon="4.2912">
        <ele>394</ele>
        <time>2020-07-03T18:23:28+02:00</time>
      </trkpt>
      <trkpt lat="46.94641" lon="4.29087">
        <ele>401</ele>
        <time>2020-07-03T18:23:28+02:00</time>
      </trkpt>
      <trkpt lat="46.94646" lon="4.29055">
        <ele>395</ele>
        <time>2020-07-03T18:23:28+02:00</time>
      </trkpt>
      <trkpt lat="46.94655" lon="4.29024">
        <ele>389</ele>
        <time>2020-07-03T18:23:28+02:00</time>
      </trkpt>
      <trkpt lat="46.94664" lon="4.28993">
        <ele>385</ele>
        <time>2020-07-03T18:23:28+02:00</time>
      </trkpt>
      <trkpt lat="46.9467" lon="4.28961">
        <ele>383</ele>
        <time>2020-07-03T18:23:28+02:00</time>
      </trkpt>
      <trkpt lat="46.94675" lon="4.28927">
        <ele>384</ele>
        <time>2020-07-03T18:25:36+02:00</time>
      </trkpt>
      <trkpt lat="46.94675" lon="4.28894">
        <ele>385</ele>
        <time>2020-07-03T18:25:36+02:00</time>
      </trkpt>
      <trkpt lat="46.94682" lon="4.28862">
        <ele>387</ele>
        <time>2020-07-03T18:25:36+02:00</time>
      </trkpt>
      <trkpt lat="46.94688" lon="4.28829">
        <ele>387</ele>
        <time>2020-07-03T18:25:36+02:00</time>
      </trkpt>
      <trkpt lat="46.94709" lon="4.28842">
        <ele>386</ele>
        <time>2020-07-03T18:25:36+02:00</time>
      </trkpt>
    </trkseg>
  </trk>
</gpx>